Time,TemperatureF,DewpointF,PressureIn,WindDirection,WindDirectionDegrees,WindSpeedMPH,WindSpeedGustMPH,Humidity,HourlyPrecipIn,Conditions,Clouds,dailyrainin,SoftwareType,DateUTC
2013-02-21 00:00:00,56.8,53.3,30.07,West,281,0.0,0.0,88,0.00,,---,0.01,VWS V14.01,2013-02-21 05:00:00,
2013-02-21 00:01:00,56.8,53.3,30.07,West,281,1.0,1.0,88,0.00,,---,0.00,VWS V14.01,2013-02-21 05:01:00,
2013-02-21 00:02:00,56.8,53.3,30.07,West,281,0.0,1.0,88,0.00,,---,0.00,VWS V14.01,2013-02-21 05:02:00,
2013-02-21 00:05:00,56.8,53.3,30.07,West,281,0.0,1.0,88,0.00,,---,0.00,VWS V14.01,2013-02-21 05:05:00,
2013-02-21 00:06:00,56.8,53.3,30.07,West,281,0.0,1.0,88,0.00,,---,0.00,VWS V14.01,2013-02-21 05:06:00,
2013-02-21 00:07:00,56.7,53.5,30.07,West,281,0.0,0.0,89,0.00,,---,0.00,VWS V14.01,2013-02-21 05:07:00,
2013-02-21 00:11:00,56.7,53.5,30.07,West,281,0.0,0.0,89,0.00,,---,0.00,VWS V14.01,2013-02-21 05:11:00,
2013-02-21 00:13:00,56.7,53.5,30.07,West,281,0.0,0.0,89,0.00,,---,0.00,VWS V14.01,2013-02-21 05:13:00,
2013-02-21 00:16:00,56.7,53.5,30.07,West,281,0.0,0.0,89,0.00,,---,0.00,VWS V14.01,2013-02-21 05:16:00,
2013-02-21 00:17:00,56.7,53.5,30.07,West,281,0.0,0.0,89,0.00,,---,0.00,VWS V14.01,2013-02-21 05:17:00,
2013-02-21 00:18:00,56.7,53.5,30.07,West,281,0.0,0.0,89,0.00,,---,0.00,VWS V14.01,2013-02-21 05:18:00,
2013-02-21 00:21:00,56.6,53.4,30.07,West,281,0.0,0.0,89,0.00,,---,0.00,VWS V14.01,2013-02-21 05:21:00,
2013-02-21 00:23:00,56.6,53.4,30.07,West,281,0.0,0.0,89,0.00,,---,0.00,VWS V14.01,2013-02-21 05:23:00,
2013-02-21 00:26:00,56.6,53.4,30.06,West,281,0.0,1.0,89,0.00,,---,0.00,VWS V14.01,2013-02-21 05:26:00,
2013-02-21 00:28:00,56.6,53.4,30.06,West,281,0.0,1.0,89,0.00,,---,0.00,VWS V14.01,2013-02-21 05:28:00,
2013-02-21 00:30:00,56.6,53.4,30.06,West,281,0.0,1.0,89,0.00,,---,0.00,VWS V14.01,2013-02-21 05:30:00,
2013-02-21 00:31:00,56.6,53.4,30.06,West,281,0.0,0.0,89,0.00,,---,0.00,VWS V14.01,2013-02-21 05:31:00,
2013-02-21 00:32:00,56.6,53.4,30.06,West,281,0.0,1.0,89,0.00,,---,0.00,VWS V14.01,2013-02-21 05:32:00,
2013-02-21 00:34:00,56.6,53.4,30.07,West,281,0.0,1.0,89,0.00,,---,0.00,VWS V14.01,2013-02-21 05:34:00,
2013-02-21 00:35:00,56.7,53.5,30.07,West,281,0.0,1.0,89,0.00,,---,0.00,VWS V14.01,2013-02-21 05:35:00,
2013-02-21 00:36:00,56.7,53.5,30.07,West,281,0.0,0.0,89,0.00,,---,0.00,VWS V14.01,2013-02-21 05:36:00,
2013-02-21 00:37:00,56.7,53.5,30.07,West,281,0.0,0.0,89,0.00,,---,0.00,VWS V14.01,2013-02-21 05:37:00,
2013-02-21 00:41:00,56.8,53.6,30.07,West,281,0.0,0.0,89,0.00,,---,0.00,VWS V14.01,2013-02-21 05:41:00,
2013-02-21 00:42:00,56.8,53.6,30.07,West,281,0.0,0.0,89,0.00,,---,0.00,VWS V14.01,2013-02-21 05:42:00,
2013-02-21 00:43:00,56.8,53.6,30.07,West,281,0.0,0.0,89,0.00,,---,0.00,VWS V14.01,2013-02-21 05:43:00,
2013-02-21 00:46:00,56.8,53.6,30.06,West,281,0.0,0.0,89,0.00,,---,0.00,VWS V14.01,2013-02-21 05:46:00,
2013-02-21 00:47:00,56.8,53.6,30.06,West,281,0.0,0.0,89,0.00,,---,0.00,VWS V14.01,2013-02-21 05:47:00,
2013-02-21 00:49:00,56.8,53.6,30.06,West,281,1.0,1.0,89,0.00,,---,0.00,VWS V14.01,2013-02-21 05:49:00,
2013-02-21 00:52:00,56.8,53.6,30.06,West,281,0.0,0.0,89,0.00,,---,0.00,VWS V14.01,2013-02-21 05:52:00,
2013-02-21 00:54:00,56.9,53.7,30.06,West,281,0.0,0.0,89,0.00,,---,0.00,VWS V14.01,2013-02-21 05:54:00,
2013-02-21 00:58:00,56.9,54.0,30.06,West,281,0.0,0.0,90,0.00,,---,0.00,VWS V14.01,2013-02-21 05:58:00,
2013-02-21 00:59:00,56.9,54.0,30.06,West,281,0.0,0.0,90,0.00,,---,0.00,VWS V14.01,2013-02-21 05:59:00,
2013-02-21 01:00:00,56.9,54.0,30.06,West,281,0.0,0.0,90,0.00,,---,0.00,VWS V14.01,2013-02-21 06:00:00,
2013-02-21 01:03:00,56.9,54.0,30.06,West,281,0.0,0.0,90,0.00,,---,0.00,VWS V14.01,2013-02-21 06:03:00,
2013-02-21 01:04:00,56.9,54.0,30.06,West,281,0.0,0.0,90,0.00,,---,0.00,VWS V14.01,2013-02-21 06:04:00,
2013-02-21 01:05:00,56.9,54.0,30.06,West,281,0.0,0.0,90,0.00,,---,0.00,VWS V14.01,2013-02-21 06:05:00,
2013-02-21 01:07:00,56.8,53.9,30.06,West,281,0.0,0.0,90,0.00,,---,0.00,VWS V14.01,2013-02-21 06:07:00,
2013-02-21 01:09:00,56.8,53.9,30.06,West,281,0.0,0.0,90,0.00,,---,0.00,VWS V14.01,2013-02-21 06:09:00,
2013-02-21 01:12:00,56.8,53.9,30.06,West,281,0.0,1.0,90,0.00,,---,0.00,VWS V14.01,2013-02-21 06:12:00,
2013-02-21 01:13:00,56.8,53.9,30.06,West,281,1.0,1.0,90,0.00,,---,0.00,VWS V14.01,2013-02-21 06:13:00,
2013-02-21 01:14:00,56.8,53.9,30.06,West,281,0.0,1.0,90,0.00,,---,0.00,VWS V14.01,2013-02-21 06:14:00,
2013-02-21 01:17:00,56.9,54.0,30.06,West,281,0.0,1.0,90,0.00,,---,0.00,VWS V14.01,2013-02-21 06:17:00,
2013-02-21 01:20:00,56.9,54.0,30.06,West,281,1.0,1.0,90,0.00,,---,0.00,VWS V14.01,2013-02-21 06:20:00,
2013-02-21 01:21:00,57.0,54.1,30.06,West,281,1.0,2.0,90,0.00,,---,0.00,VWS V14.01,2013-02-21 06:21:00,
2013-02-21 01:23:00,57.0,54.1,30.06,West,281,0.0,2.0,90,0.00,,---,0.00,VWS V14.01,2013-02-21 06:23:00,
2013-02-21 01:25:00,57.1,54.2,30.06,West,281,1.0,2.0,90,0.00,,---,0.00,VWS V14.01,2013-02-21 06:25:00,
2013-02-21 01:26:00,57.2,54.6,30.06,West,281,1.0,1.0,91,0.00,,---,0.00,VWS V14.01,2013-02-21 06:26:00,
2013-02-21 01:27:00,57.2,54.6,30.06,West,281,1.0,1.0,91,0.00,,---,0.00,VWS V14.01,2013-02-21 06:27:00,
2013-02-21 01:29:00,57.2,54.6,30.06,West,281,0.0,1.0,91,0.00,,---,0.00,VWS V14.01,2013-02-21 06:29:00,
2013-02-21 01:30:00,57.3,54.4,30.06,West,281,0.0,1.0,90,0.00,,---,0.00,VWS V14.01,2013-02-21 06:30:00,
2013-02-21 01:32:00,57.3,54.4,30.06,West,281,1.0,1.0,90,0.00,,---,0.00,VWS V14.01,2013-02-21 06:32:00,
2013-02-21 01:33:00,57.4,54.5,30.06,West,281,1.0,2.0,90,0.00,,---,0.00,VWS V14.01,2013-02-21 06:33:00,
2013-02-21 01:34:00,57.4,54.5,30.06,West,281,0.0,2.0,90,0.00,,---,0.00,VWS V14.01,2013-02-21 06:34:00,
2013-02-21 01:35:00,57.4,54.5,30.06,West,281,2.0,2.0,90,0.00,,---,0.00,VWS V14.01,2013-02-21 06:35:00,
2013-02-21 01:38:00,57.6,54.7,30.06,West,281,0.0,1.0,90,0.00,,---,0.00,VWS V14.01,2013-02-21 06:38:00,
2013-02-21 01:39:00,57.6,54.7,30.05,West,281,1.0,1.0,90,0.00,,---,0.00,VWS V14.01,2013-02-21 06:39:00,
2013-02-21 01:40:00,57.6,54.7,30.05,West,281,0.0,1.0,90,0.00,,---,0.00,VWS V14.01,2013-02-21 06:40:00,
2013-02-21 01:44:00,57.8,55.2,30.05,West,281,0.0,2.0,91,0.00,,---,0.00,VWS V14.01,2013-02-21 06:44:00,
2013-02-21 01:45:00,57.9,55.3,30.05,West,281,0.0,2.0,91,0.00,,---,0.00,VWS V14.01,2013-02-21 06:45:00,
2013-02-21 01:47:00,58.0,55.4,30.05,West,281,0.0,2.0,91,0.00,,---,0.00,VWS V14.01,2013-02-21 06:47:00,
2013-02-21 01:49:00,58.1,55.5,30.05,West,281,0.0,2.0,91,0.00,,---,0.00,VWS V14.01,2013-02-21 06:49:00,
2013-02-21 01:51:00,58.2,55.6,30.05,West,281,1.0,1.0,91,0.00,,---,0.00,VWS V14.01,2013-02-21 06:51:00,
2013-02-21 01:52:00,58.3,55.7,30.05,West,281,1.0,1.0,91,0.00,,---,0.00,VWS V14.01,2013-02-21 06:52:00,
2013-02-21 01:55:00,58.4,55.8,30.05,West,281,0.0,2.0,91,0.00,,---,0.00,VWS V14.01,2013-02-21 06:55:00,
2013-02-21 01:56:00,58.4,55.8,30.05,West,281,1.0,1.0,91,0.00,,---,0.00,VWS V14.01,2013-02-21 06:56:00,
2013-02-21 01:57:00,58.5,55.9,30.05,West,281,2.0,2.0,91,0.00,,---,0.00,VWS V14.01,2013-02-21 06:57:00,
2013-02-21 01:58:00,58.5,55.9,30.05,West,281,1.0,2.0,91,0.00,,---,0.00,VWS V14.01,2013-02-21 06:58:00,
2013-02-21 02:00:00,58.6,56.0,30.05,West,281,0.0,2.0,91,0.00,,---,0.00,VWS V14.01,2013-02-21 07:00:00,
2013-02-21 02:03:00,58.6,56.0,30.05,West,281,1.0,1.0,91,0.00,,---,0.00,VWS V14.01,2013-02-21 07:03:00,
2013-02-21 02:05:00,58.7,56.1,30.05,West,281,1.0,2.0,91,0.00,,---,0.00,VWS V14.01,2013-02-21 07:05:00,
2013-02-21 02:06:00,58.6,56.0,30.05,West,281,1.0,2.0,91,0.00,,---,0.00,VWS V14.01,2013-02-21 07:06:00,
2013-02-21 02:08:00,58.7,56.1,30.05,West,281,1.0,2.0,91,0.00,,---,0.00,VWS V14.01,2013-02-21 07:08:00,
2013-02-21 02:09:00,58.7,56.1,30.05,West,281,0.0,2.0,91,0.00,,---,0.00,VWS V14.01,2013-02-21 07:09:00,
2013-02-21 02:11:00,58.7,56.1,30.05,West,281,1.0,2.0,91,0.00,,---,0.00,VWS V14.01,2013-02-21 07:11:00,
2013-02-21 02:14:00,58.7,56.1,30.05,West,281,0.0,1.0,91,0.00,,---,0.00,VWS V14.01,2013-02-21 07:14:00,
2013-02-21 02:16:00,58.7,56.1,30.05,West,281,1.0,1.0,91,0.00,,---,0.00,VWS V14.01,2013-02-21 07:16:00,
2013-02-21 02:17:00,58.7,56.1,30.05,West,281,1.0,1.0,91,0.00,,---,0.00,VWS V14.01,2013-02-21 07:17:00,
2013-02-21 02:20:00,58.8,56.2,30.05,West,281,1.0,1.0,91,0.00,,---,0.00,VWS V14.01,2013-02-21 07:20:00,
2013-02-21 02:21:00,58.7,56.1,30.05,West,281,0.0,0.0,91,0.00,,---,0.00,VWS V14.01,2013-02-21 07:21:00,
2013-02-21 02:22:00,58.8,56.2,30.05,WNW,286,0.0,3.0,91,0.00,,---,0.00,VWS V14.01,2013-02-21 07:22:00,
2013-02-21 02:23:00,58.8,56.2,30.05,WNW,286,0.0,3.0,91,0.00,,---,0.00,VWS V14.01,2013-02-21 07:23:00,
2013-02-21 02:26:00,58.8,56.2,30.05,WNW,286,1.0,3.0,91,0.00,,---,0.00,VWS V14.01,2013-02-21 07:26:00,
2013-02-21 02:28:00,58.8,56.2,30.05,WNW,286,0.0,2.0,91,0.00,,---,0.00,VWS V14.01,2013-02-21 07:28:00,
2013-02-21 02:30:00,58.8,56.2,30.05,WNW,286,0.0,2.0,91,0.00,,---,0.00,VWS V14.01,2013-02-21 07:30:00,
2013-02-21 02:31:00,58.7,56.1,30.05,WNW,286,1.0,2.0,91,0.00,,---,0.00,VWS V14.01,2013-02-21 07:31:00,
2013-02-21 02:34:00,58.8,56.2,30.05,WNW,286,1.0,2.0,91,0.00,,---,0.00,VWS V14.01,2013-02-21 07:34:00,
2013-02-21 02:36:00,58.7,56.1,30.05,WNW,286,0.0,0.0,91,0.00,,---,0.00,VWS V14.01,2013-02-21 07:36:00,
2013-02-21 02:37:00,58.7,56.1,30.05,WNW,286,1.0,1.0,91,0.00,,---,0.00,VWS V14.01,2013-02-21 07:37:00,
2013-02-21 02:40:00,58.7,56.4,30.05,WNW,286,1.0,2.0,92,0.00,,---,0.00,VWS V14.01,2013-02-21 07:40:00,
2013-02-21 02:42:00,58.7,56.1,30.04,WNW,286,0.0,1.0,91,0.00,,---,0.00,VWS V14.01,2013-02-21 07:42:00,
2013-02-21 02:46:00,58.7,56.4,30.04,WNW,286,1.0,1.0,92,0.00,,---,0.00,VWS V14.01,2013-02-21 07:46:00,
2013-02-21 02:47:00,58.7,56.4,30.04,WNW,286,1.0,2.0,92,0.00,,---,0.00,VWS V14.01,2013-02-21 07:47:00,
2013-02-21 02:48:00,58.8,56.5,30.04,WNW,286,0.0,2.0,92,0.00,,---,0.00,VWS V14.01,2013-02-21 07:48:00,
2013-02-21 02:53:00,58.8,56.5,30.04,WNW,286,0.0,2.0,92,0.00,,---,0.00,VWS V14.01,2013-02-21 07:53:00,
2013-02-21 02:54:00,58.8,56.5,30.04,WNW,286,1.0,2.0,92,0.00,,---,0.00,VWS V14.01,2013-02-21 07:54:00,
2013-02-21 02:58:00,58.8,56.5,30.04,WNW,286,1.0,2.0,92,0.00,,---,0.00,VWS V14.01,2013-02-21 07:58:00,
2013-02-21 02:59:00,58.7,56.4,30.04,WNW,286,0.0,2.0,92,0.00,,---,0.00,VWS V14.01,2013-02-21 07:59:00,
2013-02-21 03:03:00,58.8,56.5,30.04,WNW,286,0.0,1.0,92,0.00,,---,0.00,VWS V14.01,2013-02-21 08:03:00,
2013-02-21 03:04:00,58.8,56.5,30.04,WNW,286,1.0,1.0,92,0.00,,---,0.00,VWS V14.01,2013-02-21 08:04:00,
2013-02-21 03:09:00,58.9,56.6,30.04,WNW,286,1.0,2.0,92,0.00,,---,0.00,VWS V14.01,2013-02-21 08:09:00,
2013-02-21 03:10:00,58.9,56.6,30.04,WNW,286,0.0,2.0,92,0.00,,---,0.00,VWS V14.01,2013-02-21 08:10:00,
2013-02-21 03:14:00,58.9,56.9,30.04,WNW,286,1.0,1.0,93,0.00,,---,0.00,VWS V14.01,2013-02-21 08:14:00,
2013-02-21 03:15:00,58.9,56.9,30.04,WNW,286,1.0,2.0,93,0.00,,---,0.00,VWS V14.01,2013-02-21 08:15:00,
2013-02-21 03:16:00,58.9,56.9,30.04,WNW,286,2.0,2.0,93,0.00,,---,0.00,VWS V14.01,2013-02-21 08:16:00,
2013-02-21 03:17:00,58.9,56.9,30.04,WNW,286,1.0,2.0,93,0.00,,---,0.00,VWS V14.01,2013-02-21 08:17:00,
2013-02-21 03:19:00,58.9,56.9,30.04,WNW,286,1.0,2.0,93,0.00,,---,0.00,VWS V14.01,2013-02-21 08:19:00,
2013-02-21 03:21:00,59.0,57.0,30.03,WNW,286,1.0,2.0,93,0.00,,---,0.00,VWS V14.01,2013-02-21 08:21:00,
2013-02-21 03:22:00,59.0,57.0,30.03,WNW,286,1.0,1.0,93,0.00,,---,0.00,VWS V14.01,2013-02-21 08:22:00,
2013-02-21 03:23:00,59.0,57.0,30.03,WNW,286,0.0,2.0,93,0.00,,---,0.00,VWS V14.01,2013-02-21 08:23:00,
2013-02-21 03:26:00,59.0,57.0,30.03,WNW,286,0.0,1.0,93,0.00,,---,0.00,VWS V14.01,2013-02-21 08:26:00,
2013-02-21 03:27:00,59.1,57.1,30.03,WNW,286,1.0,1.0,93,0.00,,---,0.00,VWS V14.01,2013-02-21 08:27:00,
2013-02-21 03:28:00,59.1,57.1,30.03,WNW,286,1.0,1.0,93,0.00,,---,0.00,VWS V14.01,2013-02-21 08:28:00,
2013-02-21 03:29:00,59.1,57.1,30.03,WNW,286,1.0,1.0,93,0.00,,---,0.00,VWS V14.01,2013-02-21 08:29:00,
2013-02-21 03:31:00,59.1,57.1,30.03,WNW,286,1.0,2.0,93,0.00,,---,0.00,VWS V14.01,2013-02-21 08:31:00,
2013-02-21 03:32:00,59.1,57.1,30.03,WNW,286,2.0,2.0,93,0.00,,---,0.00,VWS V14.01,2013-02-21 08:32:00,
2013-02-21 03:33:00,59.1,57.1,30.03,WNW,286,2.0,2.0,93,0.00,,---,0.00,VWS V14.01,2013-02-21 08:33:00,
2013-02-21 03:34:00,59.1,57.1,30.03,WNW,286,1.0,2.0,93,0.00,,---,0.00,VWS V14.01,2013-02-21 08:34:00,
2013-02-21 03:37:00,59.2,57.2,30.03,WNW,286,0.0,1.0,93,0.00,,---,0.00,VWS V14.01,2013-02-21 08:37:00,
2013-02-21 03:39:00,59.2,57.2,30.03,WNW,286,1.0,2.0,93,0.00,,---,0.00,VWS V14.01,2013-02-21 08:39:00,
2013-02-21 03:41:00,59.3,57.3,30.03,WNW,286,0.0,1.0,93,0.00,,---,0.00,VWS V14.01,2013-02-21 08:41:00,
2013-02-21 03:42:00,59.3,57.3,30.03,WNW,286,1.0,1.0,93,0.00,,---,0.00,VWS V14.01,2013-02-21 08:42:00,
2013-02-21 03:44:00,59.2,57.2,30.03,WNW,286,1.0,1.0,93,0.00,,---,0.00,VWS V14.01,2013-02-21 08:44:00,
2013-02-21 03:47:00,59.2,57.2,30.03,WNW,286,0.0,1.0,93,0.00,,---,0.00,VWS V14.01,2013-02-21 08:47:00,
2013-02-21 03:49:00,59.3,57.3,30.03,WNW,286,1.0,1.0,93,0.00,,---,0.00,VWS V14.01,2013-02-21 08:49:00,
2013-02-21 03:50:00,59.3,57.3,30.03,WNW,286,1.0,1.0,93,0.00,,---,0.00,VWS V14.01,2013-02-21 08:50:00,
2013-02-21 03:52:00,59.3,57.3,30.03,WNW,286,1.0,1.0,93,0.00,,---,0.00,VWS V14.01,2013-02-21 08:52:00,
2013-02-21 03:56:00,59.3,57.3,30.03,WNW,286,1.0,1.0,93,0.00,,---,0.00,VWS V14.01,2013-02-21 08:56:00,
2013-02-21 03:57:00,59.2,57.2,30.03,WNW,286,1.0,1.0,93,0.00,,---,0.00,VWS V14.01,2013-02-21 08:57:00,
2013-02-21 03:58:00,59.2,57.2,30.03,WNW,286,0.0,1.0,93,0.00,,---,0.00,VWS V14.01,2013-02-21 08:58:00,
2013-02-21 04:01:00,59.3,57.3,30.03,WNW,287,1.0,3.0,93,0.00,,---,0.00,VWS V14.01,2013-02-21 09:01:00,
2013-02-21 04:03:00,59.3,57.3,30.03,WNW,287,0.0,2.0,93,0.00,,---,0.00,VWS V14.01,2013-02-21 09:03:00,
2013-02-21 04:04:00,59.3,57.3,30.03,WNW,287,1.0,2.0,93,0.00,,---,0.00,VWS V14.01,2013-02-21 09:04:00,
2013-02-21 04:07:00,59.3,57.3,30.03,WNW,287,1.0,2.0,93,0.00,,---,0.00,VWS V14.01,2013-02-21 09:07:00,
2013-02-21 04:08:00,59.3,57.3,30.03,WNW,287,1.0,2.0,93,0.00,,---,0.00,VWS V14.01,2013-02-21 09:08:00,
2013-02-21 04:10:00,59.3,57.3,30.03,WNW,287,1.0,2.0,93,0.00,,---,0.00,VWS V14.01,2013-02-21 09:10:00,
2013-02-21 04:13:00,59.3,57.3,30.03,WNW,287,1.0,1.0,93,0.00,,---,0.00,VWS V14.01,2013-02-21 09:13:00,
2013-02-21 04:14:00,59.3,57.3,30.03,WNW,287,1.0,2.0,93,0.00,,---,0.00,VWS V14.01,2013-02-21 09:14:00,
2013-02-21 04:15:00,59.3,57.3,30.03,WNW,287,1.0,2.0,93,0.00,,---,0.00,VWS V14.01,2013-02-21 09:15:00,
2013-02-21 04:18:00,59.3,57.3,30.03,WNW,287,0.0,1.0,93,0.00,,---,0.00,VWS V14.01,2013-02-21 09:18:00,
2013-02-21 04:19:00,59.3,57.3,30.03,WNW,287,1.0,1.0,93,0.00,,---,0.00,VWS V14.01,2013-02-21 09:19:00,
2013-02-21 04:20:00,59.3,57.3,30.03,WNW,287,0.0,2.0,93,0.00,,---,0.00,VWS V14.01,2013-02-21 09:20:00,
2013-02-21 04:21:00,59.3,57.3,30.03,WNW,287,2.0,2.0,93,0.00,,---,0.00,VWS V14.01,2013-02-21 09:21:00,
2013-02-21 04:23:00,59.2,57.2,30.03,WNW,287,0.0,2.0,93,0.00,,---,0.00,VWS V14.01,2013-02-21 09:23:00,
2013-02-21 04:26:00,59.2,57.2,30.03,WNW,287,1.0,2.0,93,0.00,,---,0.00,VWS V14.01,2013-02-21 09:26:00,
2013-02-21 04:29:00,59.2,57.2,30.04,WNW,287,1.0,2.0,93,0.00,,---,0.00,VWS V14.01,2013-02-21 09:29:00,
2013-02-21 04:31:00,59.2,57.2,30.04,WNW,287,1.0,1.0,93,0.00,,---,0.00,VWS V14.01,2013-02-21 09:31:00,
2013-02-21 04:32:00,59.2,57.2,30.04,WNW,287,1.0,2.0,93,0.00,,---,0.00,VWS V14.01,2013-02-21 09:32:00,
2013-02-21 04:34:00,59.2,57.2,30.04,WNW,287,1.0,2.0,93,0.00,,---,0.00,VWS V14.01,2013-02-21 09:34:00,
2013-02-21 04:36:00,59.1,57.1,30.04,WNW,287,0.0,1.0,93,0.00,,---,0.00,VWS V14.01,2013-02-21 09:36:00,
2013-02-21 04:37:00,59.2,57.2,30.04,WNW,287,0.0,2.0,93,0.00,,---,0.00,VWS V14.01,2013-02-21 09:37:00,
2013-02-21 04:39:00,59.2,57.2,30.04,WNW,287,0.0,2.0,93,0.00,,---,0.00,VWS V14.01,2013-02-21 09:39:00,
2013-02-21 04:41:00,59.1,57.1,30.04,WNW,287,1.0,1.0,93,0.00,,---,0.00,VWS V14.01,2013-02-21 09:41:00,
2013-02-21 04:42:00,59.2,57.2,30.04,WNW,287,2.0,2.0,93,0.00,,---,0.00,VWS V14.01,2013-02-21 09:42:00,
2013-02-21 04:44:00,59.1,57.1,30.04,WNW,287,1.0,2.0,93,0.00,,---,0.00,VWS V14.01,2013-02-21 09:44:00,
2013-02-21 04:47:00,59.2,57.2,30.04,WNW,287,1.0,1.0,93,0.00,,---,0.00,VWS V14.01,2013-02-21 09:47:00,
2013-02-21 04:48:00,59.1,57.1,30.04,WNW,287,0.0,1.0,93,0.00,,---,0.00,VWS V14.01,2013-02-21 09:48:00,
2013-02-21 04:49:00,59.1,57.1,30.04,WNW,287,1.0,1.0,93,0.00,,---,0.00,VWS V14.01,2013-02-21 09:49:00,
2013-02-21 04:52:00,59.1,57.1,30.04,WNW,287,1.0,2.0,93,0.00,,---,0.00,VWS V14.01,2013-02-21 09:52:00,
2013-02-21 04:53:00,59.1,57.1,30.04,WNW,287,1.0,2.0,93,0.00,,---,0.00,VWS V14.01,2013-02-21 09:53:00,
2013-02-21 04:54:00,59.1,57.1,30.04,WNW,287,0.0,2.0,93,0.00,,---,0.00,VWS V14.01,2013-02-21 09:54:00,
2013-02-21 04:56:00,59.1,57.1,30.04,WNW,287,1.0,2.0,93,0.00,,---,0.00,VWS V14.01,2013-02-21 09:56:00,
2013-02-21 04:57:00,59.1,57.1,30.04,WNW,287,0.0,1.0,93,0.00,,---,0.00,VWS V14.01,2013-02-21 09:57:00,
2013-02-21 04:59:00,59.1,57.1,30.04,WNW,287,1.0,1.0,93,0.00,,---,0.00,VWS V14.01,2013-02-21 09:59:00,
2013-02-21 05:00:00,59.1,57.1,30.05,WNW,287,1.0,1.0,93,0.00,,---,0.00,VWS V14.01,2013-02-21 10:00:00,
2013-02-21 05:01:00,59.1,57.1,30.05,WNW,287,0.0,1.0,93,0.00,,---,0.00,VWS V14.01,2013-02-21 10:01:00,
2013-02-21 05:03:00,59.1,57.1,30.05,WNW,287,1.0,2.0,93,0.00,,---,0.00,VWS V14.01,2013-02-21 10:03:00,
2013-02-21 05:06:00,59.1,57.1,30.04,WNW,287,0.0,2.0,93,0.00,,---,0.00,VWS V14.01,2013-02-21 10:06:00,
2013-02-21 05:09:00,59.1,57.1,30.05,WNW,287,0.0,2.0,93,0.00,,---,0.00,VWS V14.01,2013-02-21 10:09:00,
2013-02-21 05:11:00,59.1,57.1,30.05,WNW,287,1.0,1.0,93,0.00,,---,0.00,VWS V14.01,2013-02-21 10:11:00,
2013-02-21 05:12:00,59.1,57.1,30.05,WNW,287,0.0,1.0,93,0.00,,---,0.00,VWS V14.01,2013-02-21 10:12:00,
2013-02-21 05:14:00,59.1,57.1,30.05,WNW,287,1.0,2.0,93,0.00,,---,0.00,VWS V14.01,2013-02-21 10:14:00,
2013-02-21 05:17:00,59.1,57.1,30.05,WNW,287,1.0,1.0,93,0.00,,---,0.00,VWS V14.01,2013-02-21 10:17:00,
2013-02-21 05:19:00,59.1,57.1,30.05,WNW,287,1.0,2.0,93,0.00,,---,0.00,VWS V14.01,2013-02-21 10:19:00,
2013-02-21 05:22:00,59.1,57.1,30.04,WNW,287,1.0,1.0,93,0.00,,---,0.00,VWS V14.01,2013-02-21 10:22:00,
2013-02-21 05:23:00,59.1,57.1,30.04,NE,51,2.0,2.0,93,0.00,,---,0.00,VWS V14.01,2013-02-21 10:23:00,
2013-02-21 05:27:00,59.1,57.1,30.04,NE,51,1.0,1.0,93,0.00,,---,0.00,VWS V14.01,2013-02-21 10:27:00,
2013-02-21 05:28:00,59.1,57.1,30.04,NE,51,1.0,2.0,93,0.00,,---,0.00,VWS V14.01,2013-02-21 10:28:00,
2013-02-21 05:32:00,59.2,57.2,30.04,NE,52,2.0,2.0,93,0.00,,---,0.00,VWS V14.01,2013-02-21 10:32:00,
2013-02-21 05:33:00,59.2,57.2,30.04,NE,52,1.0,2.0,93,0.00,,---,0.00,VWS V14.01,2013-02-21 10:33:00,
2013-02-21 05:34:00,59.2,57.2,30.04,NE,52,0.0,2.0,93,0.00,,---,0.00,VWS V14.01,2013-02-21 10:34:00,
2013-02-21 05:37:00,59.2,57.2,30.04,NE,52,1.0,2.0,93,0.00,,---,0.00,VWS V14.01,2013-02-21 10:37:00,
2013-02-21 05:38:00,59.2,57.2,30.04,NE,52,1.0,2.0,93,0.00,,---,0.00,VWS V14.01,2013-02-21 10:38:00,
2013-02-21 05:39:00,59.2,57.2,30.04,NE,52,1.0,2.0,93,0.00,,---,0.00,VWS V14.01,2013-02-21 10:39:00,
2013-02-21 05:44:00,59.2,57.2,30.04,NE,52,1.0,2.0,93,0.00,,---,0.00,VWS V14.01,2013-02-21 10:44:00,
2013-02-21 05:45:00,59.2,57.2,30.04,NE,52,1.0,2.0,93,0.00,,---,0.00,VWS V14.01,2013-02-21 10:45:00,
2013-02-21 05:49:00,59.1,57.1,30.04,NE,52,0.0,2.0,93,0.00,,---,0.00,VWS V14.01,2013-02-21 10:49:00,
2013-02-21 05:50:00,59.1,57.1,30.04,NE,52,1.0,2.0,93,0.00,,---,0.00,VWS V14.01,2013-02-21 10:50:00,
2013-02-21 05:51:00,59.1,57.1,30.04,NE,52,1.0,1.0,93,0.00,,---,0.00,VWS V14.01,2013-02-21 10:51:00,
2013-02-21 05:55:00,59.2,57.2,30.05,NE,52,2.0,2.0,93,0.00,,---,0.00,VWS V14.01,2013-02-21 10:55:00,
2013-02-21 05:56:00,59.2,57.2,30.05,NE,52,0.0,2.0,93,0.00,,---,0.00,VWS V14.01,2013-02-21 10:56:00,
2013-02-21 05:57:00,59.2,57.2,30.05,NE,52,1.0,2.0,93,0.00,,---,0.00,VWS V14.01,2013-02-21 10:57:00,
2013-02-21 06:00:00,59.2,57.5,30.05,NE,52,2.0,2.0,94,0.00,,---,0.00,VWS V14.01,2013-02-21 11:00:00,
2013-02-21 06:01:00,59.2,57.5,30.05,NE,52,1.0,2.0,94,0.00,,---,0.00,VWS V14.01,2013-02-21 11:01:00,
2013-02-21 06:03:00,59.2,57.5,30.05,NE,52,1.0,2.0,94,0.00,,---,0.00,VWS V14.01,2013-02-21 11:03:00,
2013-02-21 06:06:00,59.3,57.6,30.05,ENE,61,1.0,2.0,94,0.00,,---,0.00,VWS V14.01,2013-02-21 11:06:00,
2013-02-21 06:07:00,59.3,57.6,30.05,ENE,61,1.0,2.0,94,0.00,,---,0.00,VWS V14.01,2013-02-21 11:07:00,
2013-02-21 06:08:00,59.3,57.6,30.05,ENE,58,1.0,2.0,94,0.00,,---,0.00,VWS V14.01,2013-02-21 11:08:00,
2013-02-21 06:09:00,59.3,57.6,30.05,ENE,58,1.0,2.0,94,0.00,,---,0.00,VWS V14.01,2013-02-21 11:09:00,
2013-02-21 06:11:00,59.4,57.7,30.05,NNE,27,2.0,4.0,94,0.00,,---,0.00,VWS V14.01,2013-02-21 11:11:00,
2013-02-21 06:12:00,59.5,57.8,30.05,ENE,69,3.0,4.0,94,0.00,,---,0.00,VWS V14.01,2013-02-21 11:12:00,
2013-02-21 06:13:00,59.5,57.8,30.05,ENE,63,2.0,4.0,94,0.00,,---,0.00,VWS V14.01,2013-02-21 11:13:00,
2013-02-21 06:14:00,59.5,57.8,30.05,ENE,63,2.0,4.0,94,0.00,,---,0.00,VWS V14.01,2013-02-21 11:14:00,
2013-02-21 06:17:00,59.5,57.5,30.06,ENE,63,2.0,2.0,93,0.00,,---,0.00,VWS V14.01,2013-02-21 11:17:00,
2013-02-21 06:18:00,59.5,57.5,30.05,ENE,63,1.0,2.0,93,0.00,,---,0.00,VWS V14.01,2013-02-21 11:18:00,
2013-02-21 06:21:00,59.5,57.5,30.06,NE,55,1.0,2.0,93,0.00,,---,0.00,VWS V14.01,2013-02-21 11:21:00,
2013-02-21 06:23:00,59.6,57.6,30.06,NE,39,1.0,3.0,93,0.00,,---,0.00,VWS V14.01,2013-02-21 11:23:00,
2013-02-21 06:24:00,59.6,57.6,30.06,NE,39,1.0,3.0,93,0.00,,---,0.00,VWS V14.01,2013-02-21 11:24:00,
2013-02-21 06:26:00,59.6,57.6,30.06,NE,39,1.0,3.0,93,0.00,,---,0.00,VWS V14.01,2013-02-21 11:26:00,
2013-02-21 06:28:00,59.7,57.7,30.06,NE,39,1.0,2.0,93,0.00,,---,0.00,VWS V14.01,2013-02-21 11:28:00,
2013-02-21 06:29:00,59.7,57.7,30.06,NE,39,2.0,3.0,93,0.00,,---,0.00,VWS V14.01,2013-02-21 11:29:00,
2013-02-21 06:30:00,59.7,57.7,30.06,NE,39,1.0,3.0,93,0.00,,---,0.00,VWS V14.01,2013-02-21 11:30:00,
2013-02-21 06:34:00,59.7,57.7,30.06,North,360,0.0,2.0,93,0.00,,---,0.00,VWS V14.01,2013-02-21 11:34:00,
2013-02-21 06:36:00,59.7,57.7,30.06,North,5,1.0,2.0,93,0.00,,---,0.00,VWS V14.01,2013-02-21 11:36:00,
2013-02-21 06:39:00,59.7,57.4,30.06,NNE,30,1.0,2.0,92,0.00,,---,0.00,VWS V14.01,2013-02-21 11:39:00,
2013-02-21 06:40:00,59.6,57.3,30.07,NE,55,1.0,2.0,92,0.00,,---,0.00,VWS V14.01,2013-02-21 11:40:00,
2013-02-21 06:44:00,59.6,57.3,30.07,ENE,57,1.0,2.0,92,0.00,,---,0.00,VWS V14.01,2013-02-21 11:44:00,
2013-02-21 06:45:00,59.5,57.2,30.07,East,80,2.0,2.0,92,0.00,,---,0.00,VWS V14.01,2013-02-21 11:45:00,
2013-02-21 06:50:00,59.5,57.2,30.07,ENE,76,2.0,3.0,92,0.00,,---,0.00,VWS V14.01,2013-02-21 11:50:00,
2013-02-21 06:51:00,59.5,57.2,30.07,ENE,76,1.0,3.0,92,0.00,,---,0.00,VWS V14.01,2013-02-21 11:51:00,
2013-02-21 06:55:00,59.3,57.0,30.06,East,90,1.0,2.0,92,0.00,,---,0.00,VWS V14.01,2013-02-21 11:55:00,
2013-02-21 06:56:00,59.4,57.1,30.06,East,90,0.0,2.0,92,0.00,,---,0.00,VWS V14.01,2013-02-21 11:56:00,
2013-02-21 06:57:00,59.3,57.0,30.06,East,90,2.0,2.0,92,0.00,,---,0.00,VWS V14.01,2013-02-21 11:57:00,
2013-02-21 07:00:00,59.3,57.3,30.06,East,84,3.0,3.0,93,0.00,,---,0.00,VWS V14.01,2013-02-21 12:00:00,
2013-02-21 07:01:00,59.3,57.3,30.06,East,84,2.0,3.0,93,0.00,,---,0.00,VWS V14.01,2013-02-21 12:01:00,
2013-02-21 07:02:00,59.3,57.3,30.06,East,84,0.0,2.0,93,0.00,,---,0.00,VWS V14.01,2013-02-21 12:02:00,
2013-02-21 07:05:00,59.3,57.3,30.06,ESE,107,1.0,2.0,93,0.00,,---,0.00,VWS V14.01,2013-02-21 12:05:00,
2013-02-21 07:06:00,59.3,57.3,30.06,ESE,107,1.0,2.0,93,0.00,,---,0.00,VWS V14.01,2013-02-21 12:06:00,
2013-02-21 07:08:00,59.2,57.2,30.06,ESE,107,1.0,2.0,93,0.00,,---,0.00,VWS V14.01,2013-02-21 12:08:00,
2013-02-21 07:11:00,59.2,57.2,30.06,ESE,107,2.0,3.0,93,0.00,,---,0.00,VWS V14.01,2013-02-21 12:11:00,
2013-02-21 07:13:00,59.2,57.2,30.06,ESE,107,1.0,2.0,93,0.00,,---,0.00,VWS V14.01,2013-02-21 12:13:00,
2013-02-21 07:16:00,59.2,57.2,30.06,ESE,107,0.0,2.0,93,0.00,,---,0.00,VWS V14.01,2013-02-21 12:16:00,
2013-02-21 07:19:00,59.2,57.2,30.06,East,84,1.0,3.0,93,0.00,,---,0.00,VWS V14.01,2013-02-21 12:19:00,
2013-02-21 07:21:00,59.2,57.2,30.06,East,84,2.0,2.0,93,0.00,,---,0.00,VWS V14.01,2013-02-21 12:21:00,
2013-02-21 07:24:00,59.3,57.6,30.07,East,84,1.0,2.0,94,0.00,,---,0.00,VWS V14.01,2013-02-21 12:24:00,
2013-02-21 07:27:00,59.4,57.7,30.07,East,84,1.0,2.0,94,0.00,,---,0.00,VWS V14.01,2013-02-21 12:27:00,
2013-02-21 07:30:00,59.4,57.7,30.07,East,84,1.0,2.0,94,0.00,,---,0.00,VWS V14.01,2013-02-21 12:30:00,
2013-02-21 07:32:00,59.5,57.8,30.07,East,84,1.0,2.0,94,0.00,,---,0.00,VWS V14.01,2013-02-21 12:32:00,
2013-02-21 07:33:00,59.5,57.8,30.07,East,84,1.0,2.0,94,0.00,,---,0.00,VWS V14.01,2013-02-21 12:33:00,
2013-02-21 07:35:00,59.6,57.9,30.07,ENE,72,2.0,4.0,94,0.00,,---,0.00,VWS V14.01,2013-02-21 12:35:00,
2013-02-21 07:37:00,59.7,58.0,30.07,NE,55,2.0,3.0,94,0.00,,---,0.00,VWS V14.01,2013-02-21 12:37:00,
2013-02-21 07:38:00,59.8,58.1,30.07,NNE,32,3.0,3.0,94,0.00,,---,0.00,VWS V14.01,2013-02-21 12:38:00,
2013-02-21 07:40:00,59.9,58.2,30.08,ENE,62,2.0,3.0,94,0.00,,---,0.00,VWS V14.01,2013-02-21 12:40:00,
2013-02-21 07:44:00,60.1,58.4,30.08,ENE,62,0.0,2.0,94,0.00,,---,0.00,VWS V14.01,2013-02-21 12:44:00,
2013-02-21 07:46:00,60.2,58.5,30.08,ENE,62,1.0,2.0,94,0.00,,---,0.00,VWS V14.01,2013-02-21 12:46:00,
2013-02-21 07:49:00,60.3,58.6,30.08,ENE,62,3.0,3.0,94,0.00,,---,0.00,VWS V14.01,2013-02-21 12:49:00,
2013-02-21 07:50:00,60.3,58.3,30.08,NE,38,2.0,3.0,93,0.00,,---,0.00,VWS V14.01,2013-02-21 12:50:00,
2013-02-21 07:52:00,60.5,58.5,30.09,NE,38,1.0,2.0,93,0.00,,---,0.00,VWS V14.01,2013-02-21 12:52:00,
2013-02-21 07:54:00,60.5,58.5,30.08,NE,39,2.0,2.0,93,0.00,,---,0.00,VWS V14.01,2013-02-21 12:54:00,
2013-02-21 07:55:00,60.6,58.6,30.09,NE,40,2.0,3.0,93,0.00,,---,0.00,VWS V14.01,2013-02-21 12:55:00,
2013-02-21 07:58:00,60.7,58.7,30.09,NE,55,2.0,3.0,93,0.00,,---,0.00,VWS V14.01,2013-02-21 12:58:00,
2013-02-21 08:00:00,60.8,58.8,30.09,NE,34,1.0,3.0,93,0.00,,---,0.00,VWS V14.01,2013-02-21 13:00:00,
2013-02-21 08:02:00,60.9,58.9,30.09,ENE,66,2.0,2.0,93,0.00,,---,0.00,VWS V14.01,2013-02-21 13:02:00,
2013-02-21 08:04:00,61.0,59.0,30.09,ENE,66,1.0,2.0,93,0.00,,---,0.00,VWS V14.01,2013-02-21 13:04:00,
2013-02-21 08:05:00,61.1,59.1,30.09,ENE,66,2.0,3.0,93,0.00,,---,0.00,VWS V14.01,2013-02-21 13:05:00,
2013-02-21 08:06:00,61.1,59.1,30.09,ENE,66,3.0,3.0,93,0.00,,---,0.00,VWS V14.01,2013-02-21 13:06:00,
2013-02-21 08:07:00,61.1,59.1,30.09,NE,42,4.0,4.0,93,0.00,,---,0.00,VWS V14.01,2013-02-21 13:07:00,
2013-02-21 08:10:00,61.3,59.3,30.09,NE,44,2.0,4.0,93,0.00,,---,0.00,VWS V14.01,2013-02-21 13:10:00,
2013-02-21 08:11:00,61.3,59.3,30.09,NE,44,2.0,4.0,93,0.00,,---,0.00,VWS V14.01,2013-02-21 13:11:00,
2013-02-21 08:13:00,61.4,59.1,30.09,NE,46,4.0,4.0,92,0.00,,---,0.00,VWS V14.01,2013-02-21 13:13:00,
2013-02-21 08:15:00,61.6,59.3,30.09,NE,40,1.0,5.0,92,0.00,,---,0.00,VWS V14.01,2013-02-21 13:15:00,
2013-02-21 08:16:00,61.6,59.3,30.09,NE,51,1.0,5.0,92,0.00,,---,0.00,VWS V14.01,2013-02-21 13:16:00,
2013-02-21 08:18:00,61.7,59.4,30.10,NE,34,2.0,2.0,92,0.00,,---,0.00,VWS V14.01,2013-02-21 13:18:00,
2013-02-21 08:21:00,61.7,59.4,30.10,NE,40,2.0,4.0,92,0.00,,---,0.00,VWS V14.01,2013-02-21 13:21:00,
2013-02-21 08:22:00,61.8,59.2,30.10,NE,45,1.0,3.0,91,0.00,,---,0.00,VWS V14.01,2013-02-21 13:22:00,
2013-02-21 08:23:00,61.8,59.2,30.10,NNE,33,1.0,5.0,91,0.00,,---,0.00,VWS V14.01,2013-02-21 13:23:00,
2013-02-21 08:26:00,61.8,59.2,30.10,East,80,2.0,5.0,91,0.00,,---,0.00,VWS V14.01,2013-02-21 13:26:00,
2013-02-21 08:27:00,61.8,59.2,30.10,East,88,3.0,4.0,91,0.00,,---,0.00,VWS V14.01,2013-02-21 13:27:00,
2013-02-21 08:31:00,61.9,59.2,30.10,NE,54,3.0,4.0,91,0.00,,---,0.00,VWS V14.01,2013-02-21 13:31:00,
2013-02-21 08:32:00,61.9,59.2,30.10,ENE,65,2.0,3.0,91,0.00,,---,0.00,VWS V14.01,2013-02-21 13:32:00,
2013-02-21 08:33:00,61.9,59.2,30.10,ENE,65,1.0,3.0,91,0.00,,---,0.00,VWS V14.01,2013-02-21 13:33:00,
2013-02-21 08:36:00,62.0,59.3,30.10,NE,43,2.0,3.0,91,0.00,,---,0.00,VWS V14.01,2013-02-21 13:36:00,
2013-02-21 08:37:00,62.0,59.3,30.10,ENE,65,3.0,5.0,91,0.00,,---,0.00,VWS V14.01,2013-02-21 13:37:00,
2013-02-21 08:38:00,62.0,59.3,30.10,NE,38,3.0,5.0,91,0.00,,---,0.00,VWS V14.01,2013-02-21 13:38:00,
2013-02-21 08:43:00,62.3,59.6,30.10,NE,38,4.0,4.0,91,0.00,,---,0.00,VWS V14.01,2013-02-21 13:43:00,
2013-02-21 08:44:00,62.4,59.4,30.10,NE,50,2.0,4.0,90,0.00,,---,0.00,VWS V14.01,2013-02-21 13:44:00,
2013-02-21 08:48:00,62.6,59.6,30.10,NNE,32,2.0,3.0,90,0.00,,---,0.00,VWS V14.01,2013-02-21 13:48:00,
2013-02-21 08:49:00,62.7,59.7,30.10,NE,44,4.0,4.0,90,0.00,,---,0.00,VWS V14.01,2013-02-21 13:49:00,
2013-02-21 08:50:00,62.8,59.8,30.10,NNE,15,2.0,4.0,90,0.00,,---,0.00,VWS V14.01,2013-02-21 13:50:00,
2013-02-21 08:51:00,62.9,59.6,30.10,NE,38,3.0,4.0,89,0.00,,---,0.00,VWS V14.01,2013-02-21 13:51:00,
2013-02-21 08:53:00,63.0,59.7,30.10,NE,40,3.0,4.0,89,0.00,,---,0.00,VWS V14.01,2013-02-21 13:53:00,
2013-02-21 08:55:00,63.1,59.8,30.11,NE,36,3.0,5.0,89,0.00,,---,0.00,VWS V14.01,2013-02-21 13:55:00,
2013-02-21 08:56:00,63.1,59.8,30.11,NE,53,2.0,5.0,89,0.00,,---,0.00,VWS V14.01,2013-02-21 13:56:00,
2013-02-21 08:58:00,63.1,59.8,30.11,NE,49,2.0,5.0,89,0.00,,---,0.00,VWS V14.01,2013-02-21 13:58:00,
2013-02-21 09:00:00,63.2,59.9,30.11,NE,43,4.0,5.0,89,0.00,,---,0.00,VWS V14.01,2013-02-21 14:00:00,
2013-02-21 09:01:00,63.2,59.9,30.11,East,88,2.0,2.0,89,0.00,,---,0.00,VWS V14.01,2013-02-21 14:01:00,
2013-02-21 09:03:00,63.2,59.9,30.11,ENE,73,2.0,4.0,89,0.00,,---,0.00,VWS V14.01,2013-02-21 14:03:00,
2013-02-21 09:05:00,63.2,59.9,30.11,NNE,31,2.0,5.0,89,0.00,,---,0.00,VWS V14.01,2013-02-21 14:05:00,
2013-02-21 09:06:00,63.2,59.9,30.11,NNE,32,2.0,5.0,89,0.00,,---,0.00,VWS V14.01,2013-02-21 14:06:00,
2013-02-21 09:08:00,63.3,60.0,30.11,SE,132,2.0,3.0,89,0.00,,---,0.00,VWS V14.01,2013-02-21 14:08:00,
2013-02-21 09:10:00,63.4,59.8,30.11,NNE,26,2.0,4.0,88,0.00,,---,0.00,VWS V14.01,2013-02-21 14:10:00,
2013-02-21 09:11:00,63.4,59.8,30.11,NE,44,2.0,3.0,88,0.00,,---,0.00,VWS V14.01,2013-02-21 14:11:00,
2013-02-21 09:13:00,63.4,59.8,30.11,NE,51,1.0,3.0,88,0.00,,---,0.00,VWS V14.01,2013-02-21 14:13:00,
2013-02-21 09:14:00,63.4,59.8,30.11,NE,51,2.0,3.0,88,0.00,,---,0.00,VWS V14.01,2013-02-21 14:14:00,
2013-02-21 09:16:00,63.5,59.9,30.11,NNE,31,3.0,3.0,88,0.00,,---,0.00,VWS V14.01,2013-02-21 14:16:00,
2013-02-21 09:19:00,63.6,60.0,30.11,NE,54,1.0,4.0,88,0.00,,---,0.00,VWS V14.01,2013-02-21 14:19:00,
2013-02-21 09:22:00,63.8,60.2,30.11,ENE,61,3.0,4.0,88,0.00,,---,0.00,VWS V14.01,2013-02-21 14:22:00,
2013-02-21 09:24:00,63.9,60.3,30.11,NNE,28,1.0,4.0,88,0.00,,---,0.00,VWS V14.01,2013-02-21 14:24:00,
2013-02-21 09:25:00,64.1,60.5,30.11,NNE,28,1.0,4.0,88,0.00,,---,0.00,VWS V14.01,2013-02-21 14:25:00,
2013-02-21 09:27:00,64.3,60.7,30.11,NE,34,2.0,3.0,88,0.00,,---,0.00,VWS V14.01,2013-02-21 14:27:00,
2013-02-21 09:30:00,64.8,60.8,30.11,NE,52,2.0,5.0,87,0.00,,---,0.00,VWS V14.01,2013-02-21 14:30:00,
2013-02-21 09:31:00,64.8,60.8,30.11,NE,52,2.0,5.0,87,0.00,,---,0.00,VWS V14.01,2013-02-21 14:31:00,
2013-02-21 09:32:00,64.9,60.9,30.11,NE,48,3.0,4.0,87,0.00,,---,0.00,VWS V14.01,2013-02-21 14:32:00,
2013-02-21 09:33:00,64.9,60.9,30.11,ENE,65,2.0,4.0,87,0.00,,---,0.00,VWS V14.01,2013-02-21 14:33:00,
2013-02-21 09:36:00,65.1,61.1,30.11,East,95,2.0,5.0,87,0.00,,---,0.00,VWS V14.01,2013-02-21 14:36:00,
2013-02-21 09:37:00,65.3,61.3,30.11,East,87,1.0,3.0,87,0.00,,---,0.00,VWS V14.01,2013-02-21 14:37:00,
2013-02-21 09:38:00,65.4,61.4,30.11,East,87,1.0,3.0,87,0.00,,---,0.00,VWS V14.01,2013-02-21 14:38:00,
2013-02-21 09:41:00,65.8,61.8,30.11,East,84,2.0,3.0,87,0.00,,---,0.00,VWS V14.01,2013-02-21 14:41:00,
2013-02-21 09:42:00,65.9,61.6,30.12,ESE,115,3.0,3.0,86,0.00,,---,0.00,VWS V14.01,2013-02-21 14:42:00,
2013-02-21 09:44:00,66.2,61.6,30.11,NE,55,2.0,4.0,85,0.00,,---,0.00,VWS V14.01,2013-02-21 14:44:00,
2013-02-21 09:47:00,66.7,62.0,30.11,ENE,70,1.0,4.0,85,0.00,,---,0.00,VWS V14.01,2013-02-21 14:47:00,
2013-02-21 09:50:00,67.1,62.1,30.11,ESE,113,2.0,5.0,84,0.00,,---,0.00,VWS V14.01,2013-02-21 14:50:00,
2013-02-21 09:52:00,67.3,62.0,30.11,SE,143,1.0,3.0,83,0.00,,---,0.00,VWS V14.01,2013-02-21 14:52:00,
2013-02-21 09:53:00,67.4,62.1,30.11,ESE,113,1.0,5.0,83,0.00,,---,0.00,VWS V14.01,2013-02-21 14:53:00,
2013-02-21 09:56:00,67.5,62.2,30.11,NE,42,3.0,5.0,83,0.00,,---,0.00,VWS V14.01,2013-02-21 14:56:00,
2013-02-21 09:57:00,67.6,62.3,30.11,NE,44,1.0,3.0,83,0.00,,---,0.00,VWS V14.01,2013-02-21 14:57:00,
2013-02-21 09:58:00,67.7,62.4,30.11,NE,52,2.0,4.0,83,0.00,,---,0.00,VWS V14.01,2013-02-21 14:58:00,
2013-02-21 09:59:00,67.7,62.4,30.11,NE,35,4.0,4.0,83,0.00,,---,0.00,VWS V14.01,2013-02-21 14:59:00,
2013-02-21 10:01:00,67.8,62.1,30.11,East,79,2.0,2.0,82,0.00,,---,0.00,VWS V14.01,2013-02-21 15:01:00,
2013-02-21 10:03:00,67.9,62.2,30.11,NE,49,3.0,3.0,82,0.00,,---,0.00,VWS V14.01,2013-02-21 15:03:00,
2013-02-21 10:04:00,68.0,62.3,30.11,ENE,59,3.0,3.0,82,0.00,,---,0.00,VWS V14.01,2013-02-21 15:04:00,
2013-02-21 10:05:00,68.1,62.4,30.11,ENE,57,3.0,4.0,82,0.00,,---,0.00,VWS V14.01,2013-02-21 15:05:00,
2013-02-21 10:08:00,68.3,62.6,30.11,NE,39,1.0,4.0,82,0.00,,---,0.00,VWS V14.01,2013-02-21 15:08:00,
2013-02-21 10:09:00,68.4,63.0,30.11,East,93,2.0,4.0,83,0.00,,---,0.00,VWS V14.01,2013-02-21 15:09:00,
2013-02-21 10:11:00,68.7,63.3,30.11,NE,55,2.0,4.0,83,0.00,,---,0.00,VWS V14.01,2013-02-21 15:11:00,
2013-02-21 10:13:00,69.1,63.0,30.11,NE,56,3.0,4.0,81,0.00,,---,0.00,VWS V14.01,2013-02-21 15:13:00,
2013-02-21 10:14:00,69.2,63.1,30.11,NE,46,2.0,4.0,81,0.00,,---,0.00,VWS V14.01,2013-02-21 15:14:00,
2013-02-21 10:16:00,69.4,63.3,30.11,NE,36,2.0,2.0,81,0.00,,---,0.00,VWS V14.01,2013-02-21 15:16:00,
2013-02-21 10:18:00,69.7,63.6,30.11,ENE,76,3.0,3.0,81,0.00,,---,0.00,VWS V14.01,2013-02-21 15:18:00,
2013-02-21 10:21:00,70.2,63.8,30.11,ENE,60,3.0,3.0,80,0.00,,---,0.00,VWS V14.01,2013-02-21 15:21:00,
2013-02-21 10:23:00,70.4,63.6,30.11,ENE,61,3.0,3.0,79,0.00,,---,0.00,VWS V14.01,2013-02-21 15:23:00,
2013-02-21 10:24:00,70.7,63.9,30.11,NE,55,2.0,4.0,79,0.00,,---,0.00,VWS V14.01,2013-02-21 15:24:00,
2013-02-21 10:27:00,70.9,63.7,30.11,NE,50,3.0,3.0,78,0.00,,---,0.00,VWS V14.01,2013-02-21 15:27:00,
2013-02-21 10:29:00,71.0,64.2,30.11,NNE,29,2.0,5.0,79,0.00,,---,0.00,VWS V14.01,2013-02-21 15:29:00,
2013-02-21 10:30:00,71.2,64.0,30.11,NNE,13,2.0,5.0,78,0.00,,---,0.00,VWS V14.01,2013-02-21 15:30:00,
2013-02-21 10:32:00,71.2,64.0,30.11,NNE,30,2.0,4.0,78,0.00,,---,0.00,VWS V14.01,2013-02-21 15:32:00,
2013-02-21 10:35:00,71.4,63.8,30.11,NE,37,3.0,4.0,77,0.00,,---,0.00,VWS V14.01,2013-02-21 15:35:00,
2013-02-21 10:36:00,71.5,63.9,30.11,East,93,3.0,4.0,77,0.00,,---,0.00,VWS V14.01,2013-02-21 15:36:00,
2013-02-21 10:37:00,71.5,63.9,30.11,NE,38,1.0,6.0,77,0.00,,---,0.00,VWS V14.01,2013-02-21 15:37:00,
2013-02-21 10:40:00,71.8,64.2,30.11,ENE,57,1.0,6.0,77,0.00,,---,0.00,VWS V14.01,2013-02-21 15:40:00,
2013-02-21 10:41:00,71.8,64.2,30.11,NE,38,3.0,6.0,77,0.00,,---,0.00,VWS V14.01,2013-02-21 15:41:00,
2013-02-21 10:42:00,71.9,64.3,30.11,NNE,31,2.0,3.0,77,0.00,,---,0.00,VWS V14.01,2013-02-21 15:42:00,
2013-02-21 10:44:00,72.0,64.4,30.11,NE,50,3.0,3.0,77,0.00,,---,0.00,VWS V14.01,2013-02-21 15:44:00,
2013-02-21 10:45:00,72.1,64.5,30.11,ENE,69,1.0,3.0,77,0.00,,---,0.00,VWS V14.01,2013-02-21 15:45:00,
2013-02-21 10:46:00,72.2,64.6,30.11,ENE,74,1.0,2.0,77,0.00,,---,0.00,VWS V14.01,2013-02-21 15:46:00,
2013-02-21 10:48:00,72.4,64.8,30.11,NNE,20,5.0,5.0,77,0.00,,---,0.00,VWS V14.01,2013-02-21 15:48:00,
2013-02-21 10:51:00,72.6,64.6,30.11,ENE,67,2.0,2.0,76,0.00,,---,0.00,VWS V14.01,2013-02-21 15:51:00,
2013-02-21 10:52:00,72.7,64.7,30.11,ENE,67,1.0,2.0,76,0.00,,---,0.00,VWS V14.01,2013-02-21 15:52:00,
2013-02-21 10:53:00,72.9,64.9,30.11,NNE,15,2.0,3.0,76,0.00,,---,0.00,VWS V14.01,2013-02-21 15:53:00,
2013-02-21 10:56:00,73.2,64.8,30.11,NNE,29,4.0,4.0,75,0.00,,---,0.00,VWS V14.01,2013-02-21 15:56:00,
2013-02-21 10:58:00,73.3,64.9,30.11,NE,51,0.0,4.0,75,0.00,,---,0.00,VWS V14.01,2013-02-21 15:58:00,
2013-02-21 10:59:00,73.3,64.9,30.11,NE,51,1.0,4.0,75,0.00,,---,0.00,VWS V14.01,2013-02-21 15:59:00,
2013-02-21 11:00:00,73.5,65.5,30.11,NE,51,1.0,4.0,76,0.00,,---,0.00,VWS V14.01,2013-02-21 16:00:00,
2013-02-21 11:02:00,73.7,65.3,30.11,NE,40,0.0,2.0,75,0.00,,---,0.00,VWS V14.01,2013-02-21 16:02:00,
2013-02-21 11:03:00,73.9,65.5,30.11,East,99,2.0,2.0,75,0.00,,---,0.00,VWS V14.01,2013-02-21 16:03:00,
2013-02-21 11:04:00,73.9,65.5,30.11,East,90,3.0,3.0,75,0.00,,---,0.00,VWS V14.01,2013-02-21 16:04:00,
2013-02-21 11:07:00,74.2,65.4,30.11,NE,53,3.0,3.0,74,0.00,,---,0.00,VWS V14.01,2013-02-21 16:07:00,
2013-02-21 11:09:00,74.5,65.7,30.11,SE,134,2.0,3.0,74,0.00,,---,0.00,VWS V14.01,2013-02-21 16:09:00,
2013-02-21 11:10:00,74.6,65.8,30.11,ESE,119,2.0,3.0,74,0.00,,---,0.00,VWS V14.01,2013-02-21 16:10:00,
2013-02-21 11:11:00,74.7,65.9,30.11,ENE,59,1.0,3.0,74,0.00,,---,0.00,VWS V14.01,2013-02-21 16:11:00,
2013-02-21 11:12:00,74.8,66.0,30.11,ENE,59,2.0,3.0,74,0.00,,---,0.00,VWS V14.01,2013-02-21 16:12:00,
2013-02-21 11:14:00,75.1,66.2,30.11,SE,127,3.0,3.0,74,0.00,,---,0.00,VWS V14.01,2013-02-21 16:14:00,
2013-02-21 11:15:00,75.2,66.3,30.11,SE,127,1.0,3.0,74,0.00,,---,0.00,VWS V14.01,2013-02-21 16:15:00,
2013-02-21 11:16:00,75.4,66.2,30.11,ESE,111,3.0,4.0,73,0.00,,---,0.00,VWS V14.01,2013-02-21 16:16:00,
2013-02-21 11:18:00,75.5,66.2,30.11,ESE,107,2.0,4.0,73,0.00,,---,0.00,VWS V14.01,2013-02-21 16:18:00,
2013-02-21 11:20:00,75.6,66.3,30.11,East,100,1.0,4.0,73,0.00,,---,0.00,VWS V14.01,2013-02-21 16:20:00,
2013-02-21 11:22:00,75.8,66.1,30.10,ESE,121,2.0,5.0,72,0.00,,---,0.00,VWS V14.01,2013-02-21 16:22:00,
2013-02-21 11:25:00,76.0,66.3,30.10,SE,130,2.0,5.0,72,0.00,,---,0.00,VWS V14.01,2013-02-21 16:25:00,
2013-02-21 11:26:00,76.0,66.3,30.10,East,87,3.0,5.0,72,0.00,,---,0.00,VWS V14.01,2013-02-21 16:26:00,
2013-02-21 11:29:00,76.2,66.5,30.10,East,85,1.0,4.0,72,0.00,,---,0.00,VWS V14.01,2013-02-21 16:29:00,
2013-02-21 11:31:00,76.2,66.5,30.10,NE,53,4.0,7.0,72,0.00,,---,0.00,VWS V14.01,2013-02-21 16:31:00,
2013-02-21 11:32:00,76.2,66.5,30.10,ENE,74,2.0,4.0,72,0.00,,---,0.00,VWS V14.01,2013-02-21 16:32:00,
2013-02-21 11:35:00,76.4,66.7,30.10,South,175,0.0,6.0,72,0.00,,---,0.00,VWS V14.01,2013-02-21 16:35:00,
2013-02-21 11:36:00,76.4,66.7,30.10,ESE,118,2.0,2.0,72,0.00,,---,0.00,VWS V14.01,2013-02-21 16:36:00,
2013-02-21 11:37:00,76.5,66.8,30.10,ESE,118,2.0,2.0,72,0.00,,---,0.00,VWS V14.01,2013-02-21 16:37:00,
2013-02-21 11:39:00,76.7,67.0,30.10,South,191,1.0,4.0,72,0.00,,---,0.00,VWS V14.01,2013-02-21 16:39:00,
2013-02-21 11:40:00,76.9,66.8,30.10,East,86,7.0,7.0,71,0.00,,---,0.00,VWS V14.01,2013-02-21 16:40:00,
2013-02-21 11:42:00,77.0,66.9,30.09,East,80,3.0,3.0,71,0.00,,---,0.00,VWS V14.01,2013-02-21 16:42:00,
2013-02-21 11:43:00,77.0,66.5,30.09,East,95,3.0,7.0,70,0.00,,---,0.00,VWS V14.01,2013-02-21 16:43:00,
2013-02-21 11:46:00,77.0,66.9,30.09,SSE,154,3.0,7.0,71,0.00,,---,0.00,VWS V14.01,2013-02-21 16:46:00,
2013-02-21 11:48:00,77.1,66.6,30.09,East,80,1.0,5.0,70,0.00,,---,0.00,VWS V14.01,2013-02-21 16:48:00,
2013-02-21 11:49:00,77.2,67.1,30.09,ENE,74,2.0,5.0,71,0.00,,---,0.00,VWS V14.01,2013-02-21 16:49:00,
2013-02-21 11:51:00,77.3,66.8,30.09,SE,124,2.0,5.0,70,0.00,,---,0.00,VWS V14.01,2013-02-21 16:51:00,
2013-02-21 11:54:00,77.9,67.3,30.09,SE,145,1.0,5.0,70,0.00,,---,0.00,VWS V14.01,2013-02-21 16:54:00,
2013-02-21 11:56:00,78.0,67.0,30.09,NE,55,2.0,5.0,69,0.00,,---,0.00,VWS V14.01,2013-02-21 16:56:00,
2013-02-21 11:58:00,78.0,66.6,30.08,SE,140,2.0,5.0,68,0.00,,---,0.00,VWS V14.01,2013-02-21 16:58:00,
2013-02-21 11:59:00,78.0,67.0,30.08,ENE,63,4.0,5.0,69,0.00,,---,0.00,VWS V14.01,2013-02-21 16:59:00,
2013-02-21 12:01:00,78.0,67.0,30.08,SSE,165,3.0,3.0,69,0.00,,---,0.00,VWS V14.01,2013-02-21 17:01:00,
2013-02-21 12:03:00,78.1,67.1,30.08,SSE,158,2.0,3.0,69,0.00,,---,0.00,VWS V14.01,2013-02-21 17:03:00,
2013-02-21 12:05:00,78.1,67.1,30.08,East,83,3.0,5.0,69,0.00,,---,0.00,VWS V14.01,2013-02-21 17:05:00,
2013-02-21 12:06:00,78.1,67.1,30.08,East,95,5.0,5.0,69,0.00,,---,0.00,VWS V14.01,2013-02-21 17:06:00,
2013-02-21 12:09:00,78.2,67.2,30.08,NNE,21,3.0,6.0,69,0.00,,---,0.00,VWS V14.01,2013-02-21 17:09:00,
2013-02-21 12:10:00,78.3,66.9,30.08,SE,146,2.0,6.0,68,0.00,,---,0.00,VWS V14.01,2013-02-21 17:10:00,
2013-02-21 12:12:00,78.3,66.9,30.08,ESE,117,1.0,3.0,68,0.00,,---,0.00,VWS V14.01,2013-02-21 17:12:00,
2013-02-21 12:14:00,78.2,66.8,30.08,SE,144,2.0,4.0,68,0.00,,---,0.00,VWS V14.01,2013-02-21 17:14:00,
2013-02-21 12:15:00,78.2,66.8,30.08,SSE,161,1.0,4.0,68,0.00,,---,0.00,VWS V14.01,2013-02-21 17:15:00,
2013-02-21 12:17:00,78.2,67.2,30.08,SE,128,1.0,3.0,69,0.00,,---,0.00,VWS V14.01,2013-02-21 17:17:00,
2013-02-21 12:19:00,78.2,66.8,30.08,East,88,5.0,5.0,68,0.00,,---,0.00,VWS V14.01,2013-02-21 17:19:00,
2013-02-21 12:20:00,78.2,66.8,30.07,NNE,22,3.0,5.0,68,0.00,,---,0.00,VWS V14.01,2013-02-21 17:20:00,
2013-02-21 12:22:00,78.2,66.8,30.07,ENE,77,4.0,7.0,68,0.00,,---,0.00,VWS V14.01,2013-02-21 17:22:00,
2013-02-21 12:24:00,78.3,66.9,30.07,ESE,109,2.0,7.0,68,0.00,,---,0.00,VWS V14.01,2013-02-21 17:24:00,
2013-02-21 12:25:00,78.3,66.9,30.07,ENE,65,4.0,7.0,68,0.00,,---,0.00,VWS V14.01,2013-02-21 17:25:00,
2013-02-21 12:28:00,78.4,67.0,30.07,SSE,164,3.0,3.0,68,0.00,,---,0.00,VWS V14.01,2013-02-21 17:28:00,
2013-02-21 12:29:00,78.4,67.0,30.07,SE,144,2.0,3.0,68,0.00,,---,0.00,VWS V14.01,2013-02-21 17:29:00,
2013-02-21 12:30:00,78.4,66.6,30.07,SE,146,2.0,3.0,67,0.00,,---,0.00,VWS V14.01,2013-02-21 17:30:00,
2013-02-21 12:34:00,78.3,66.9,30.07,NW,308,1.0,3.0,68,0.00,,---,0.00,VWS V14.01,2013-02-21 17:34:00,
2013-02-21 12:35:00,78.3,66.4,30.07,ENE,78,2.0,4.0,67,0.00,,---,0.00,VWS V14.01,2013-02-21 17:35:00,
2013-02-21 12:36:00,78.4,66.6,30.07,East,90,5.0,5.0,67,0.00,,---,0.00,VWS V14.01,2013-02-21 17:36:00,
2013-02-21 12:39:00,78.3,66.9,30.07,ENE,69,3.0,5.0,68,0.00,,---,0.00,VWS V14.01,2013-02-21 17:39:00,
2013-02-21 12:40:00,78.3,66.4,30.07,East,97,3.0,7.0,67,0.00,,---,0.00,VWS V14.01,2013-02-21 17:40:00,
2013-02-21 12:42:00,78.4,66.1,30.07,ESE,123,1.0,5.0,66,0.00,,---,0.00,VWS V14.01,2013-02-21 17:42:00,
2013-02-21 12:44:00,78.4,67.0,30.07,East,79,1.0,5.0,68,0.00,,---,0.00,VWS V14.01,2013-02-21 17:44:00,
2013-02-21 12:45:00,78.4,66.6,30.07,ENE,69,2.0,5.0,67,0.00,,---,0.00,VWS V14.01,2013-02-21 17:45:00,
2013-02-21 12:47:00,78.6,66.7,30.07,ESE,107,2.0,4.0,67,0.00,,---,0.00,VWS V14.01,2013-02-21 17:47:00,
2013-02-21 12:49:00,78.8,66.9,30.07,SSE,161,1.0,4.0,67,0.00,,---,0.00,VWS V14.01,2013-02-21 17:49:00,
2013-02-21 12:50:00,78.9,67.0,30.07,ENE,59,2.0,4.0,67,0.00,,---,0.00,VWS V14.01,2013-02-21 17:50:00,
2013-02-21 12:51:00,79.1,66.8,30.06,East,80,3.0,4.0,66,0.00,,---,0.00,VWS V14.01,2013-02-21 17:51:00,
2013-02-21 12:52:00,79.1,66.3,30.06,East,94,2.0,7.0,65,0.00,,---,0.00,VWS V14.01,2013-02-21 17:52:00,
2013-02-21 12:55:00,78.8,66.5,30.06,SSW,200,2.0,7.0,66,0.00,,---,0.00,VWS V14.01,2013-02-21 17:55:00,
2013-02-21 12:56:00,78.7,66.4,30.06,SSW,200,0.0,7.0,66,0.00,,---,0.00,VWS V14.01,2013-02-21 17:56:00,
2013-02-21 12:57:00,78.5,66.2,30.06,SSW,200,2.0,2.0,66,0.00,,---,0.00,VWS V14.01,2013-02-21 17:57:00,
2013-02-21 12:58:00,78.4,66.1,30.06,SW,227,6.0,6.0,66,0.00,,---,0.00,VWS V14.01,2013-02-21 17:58:00,
2013-02-21 13:01:00,77.8,66.0,30.06,SW,214,0.0,6.0,67,0.00,,---,0.00,VWS V14.01,2013-02-21 18:01:00,
2013-02-21 13:02:00,77.8,66.0,30.06,SE,136,2.0,3.0,67,0.00,,---,0.00,VWS V14.01,2013-02-21 18:02:00,
2013-02-21 13:03:00,77.8,66.0,30.06,SE,136,1.0,3.0,67,0.00,,---,0.00,VWS V14.01,2013-02-21 18:03:00,
2013-02-21 13:04:00,77.8,66.4,30.06,East,99,2.0,3.0,68,0.00,,---,0.00,VWS V14.01,2013-02-21 18:04:00,
2013-02-21 13:06:00,78.0,66.6,30.06,ENE,59,2.0,3.0,68,0.00,,---,0.00,VWS V14.01,2013-02-21 18:06:00,
2013-02-21 13:08:00,78.0,66.2,30.06,ENE,67,1.0,3.0,67,0.00,,---,0.00,VWS V14.01,2013-02-21 18:08:00,
2013-02-21 13:09:00,78.0,66.2,30.06,ENE,65,1.0,5.0,67,0.00,,---,0.00,VWS V14.01,2013-02-21 18:09:00,
2013-02-21 13:11:00,78.0,66.2,30.06,ENE,69,0.0,1.0,67,0.00,,---,0.00,VWS V14.01,2013-02-21 18:11:00,
2013-02-21 13:12:00,78.1,66.7,30.06,ENE,69,1.0,2.0,68,0.00,,---,0.00,VWS V14.01,2013-02-21 18:12:00,
2013-02-21 13:13:00,78.1,66.7,30.06,ENE,69,1.0,2.0,68,0.00,,---,0.00,VWS V14.01,2013-02-21 18:13:00,
2013-02-21 13:15:00,78.0,66.6,30.06,ENE,76,0.0,2.0,68,0.00,,---,0.00,VWS V14.01,2013-02-21 18:15:00,
2013-02-21 13:17:00,78.1,66.7,30.06,SSE,167,2.0,2.0,68,0.00,,---,0.00,VWS V14.01,2013-02-21 18:17:00,
2013-02-21 13:18:00,78.0,66.2,30.06,SSE,167,1.0,2.0,67,0.00,,---,0.00,VWS V14.01,2013-02-21 18:18:00,
2013-02-21 13:20:00,78.0,66.6,30.06,SSE,167,0.0,2.0,68,0.00,,---,0.00,VWS V14.01,2013-02-21 18:20:00,
2013-02-21 13:23:00,77.9,66.5,30.06,NE,51,0.0,3.0,68,0.00,,---,0.00,VWS V14.01,2013-02-21 18:23:00,
2013-02-21 13:24:00,77.9,66.5,30.05,SE,138,0.0,3.0,68,0.00,,---,0.00,VWS V14.01,2013-02-21 18:24:00,
2013-02-21 13:25:00,77.9,66.5,30.05,ESE,119,1.0,3.0,68,0.00,,---,0.00,VWS V14.01,2013-02-21 18:25:00,
2013-02-21 13:28:00,77.9,66.5,30.05,ENE,59,1.0,5.0,68,0.00,,---,0.00,VWS V14.01,2013-02-21 18:28:00,
2013-02-21 13:29:00,77.9,66.5,30.05,ESE,116,2.0,5.0,68,0.00,,---,0.00,VWS V14.01,2013-02-21 18:29:00,
2013-02-21 13:30:00,77.9,66.5,30.05,SSE,161,2.0,5.0,68,0.00,,---,0.00,VWS V14.01,2013-02-21 18:30:00,
2013-02-21 13:31:00,77.9,66.5,30.05,SSE,161,1.0,5.0,68,0.00,,---,0.00,VWS V14.01,2013-02-21 18:31:00,
2013-02-21 13:35:00,77.9,66.5,30.05,ENE,76,2.0,4.0,68,0.00,,---,0.00,VWS V14.01,2013-02-21 18:35:00,
2013-02-21 13:36:00,77.9,66.5,30.05,ENE,76,0.0,4.0,68,0.00,,---,0.00,VWS V14.01,2013-02-21 18:36:00,
2013-02-21 13:40:00,77.8,66.4,30.04,SE,130,1.0,4.0,68,0.00,,---,0.00,VWS V14.01,2013-02-21 18:40:00,
2013-02-21 13:41:00,77.8,66.4,30.04,SE,130,1.0,2.0,68,0.00,,---,0.00,VWS V14.01,2013-02-21 18:41:00,
2013-02-21 13:42:00,77.8,66.4,30.04,SE,130,1.0,2.0,68,0.00,,---,0.00,VWS V14.01,2013-02-21 18:42:00,
2013-02-21 13:44:00,77.7,66.3,30.04,East,81,2.0,4.0,68,0.00,,---,0.00,VWS V14.01,2013-02-21 18:44:00,
2013-02-21 13:45:00,77.7,66.3,30.04,ESE,107,1.0,4.0,68,0.00,,---,0.00,VWS V14.01,2013-02-21 18:45:00,
2013-02-21 13:47:00,77.7,66.3,30.04,East,89,1.0,2.0,68,0.00,,---,0.00,VWS V14.01,2013-02-21 18:47:00,
2013-02-21 13:50:00,77.6,65.8,30.03,SSE,155,0.0,3.0,67,0.00,,---,0.00,VWS V14.01,2013-02-21 18:50:00,
2013-02-21 13:51:00,77.6,66.2,30.03,SSE,155,0.0,3.0,68,0.00,,---,0.00,VWS V14.01,2013-02-21 18:51:00,
2013-02-21 13:52:00,77.5,66.1,30.03,SSE,155,1.0,2.0,68,0.00,,---,0.00,VWS V14.01,2013-02-21 18:52:00,
2013-02-21 13:54:00,77.5,66.1,30.03,SSE,155,0.0,2.0,68,0.00,,---,0.00,VWS V14.01,2013-02-21 18:54:00,
2013-02-21 13:56:00,77.4,66.0,30.03,SSE,155,0.0,2.0,68,0.00,,---,0.00,VWS V14.01,2013-02-21 18:56:00,
2013-02-21 13:58:00,77.5,66.5,30.03,SSE,155,2.0,2.0,69,0.00,,---,0.00,VWS V14.01,2013-02-21 18:58:00,
2013-02-21 14:00:00,77.5,66.1,30.03,SSE,155,0.0,2.0,68,0.00,,---,0.00,VWS V14.01,2013-02-21 19:00:00,
2013-02-21 14:01:00,77.5,66.1,30.03,SSE,155,0.0,2.0,68,0.00,,---,0.00,VWS V14.01,2013-02-21 19:01:00,
2013-02-21 14:02:00,77.6,66.2,30.03,SSE,155,0.0,0.0,68,0.00,,---,0.00,VWS V14.01,2013-02-21 19:02:00,
2013-02-21 14:03:00,77.7,66.7,30.03,SSE,154,2.0,2.0,69,0.00,,---,0.00,VWS V14.01,2013-02-21 19:03:00,
2013-02-21 14:05:00,78.2,66.8,30.03,ENE,77,2.0,4.0,68,0.00,,---,0.00,VWS V14.01,2013-02-21 19:05:00,
2013-02-21 14:06:00,78.3,66.9,30.03,East,84,3.0,5.0,68,0.00,,---,0.00,VWS V14.01,2013-02-21 19:06:00,
2013-02-21 14:09:00,78.9,67.0,30.02,SE,130,2.0,5.0,67,0.00,,---,0.00,VWS V14.01,2013-02-21 19:09:00,
2013-02-21 14:11:00,79.1,66.8,30.02,ENE,76,4.0,5.0,66,0.00,,---,0.00,VWS V14.01,2013-02-21 19:11:00,
2013-02-21 14:15:00,79.6,66.4,30.02,SE,134,2.0,4.0,64,0.00,,---,0.00,VWS V14.01,2013-02-21 19:15:00,
2013-02-21 14:16:00,79.6,66.4,30.02,SE,134,0.0,4.0,64,0.00,,---,0.00,VWS V14.01,2013-02-21 19:16:00,
2013-02-21 14:17:00,79.8,67.0,30.02,SE,134,0.0,2.0,65,0.00,,---,0.00,VWS V14.01,2013-02-21 19:17:00,
2013-02-21 14:21:00,80.4,66.2,30.02,ENE,62,7.0,7.0,62,0.00,,---,0.00,VWS V14.01,2013-02-21 19:21:00,
2013-02-21 14:22:00,80.7,66.5,30.02,East,99,0.0,8.0,62,0.00,,---,0.00,VWS V14.01,2013-02-21 19:22:00,
2013-02-21 14:23:00,80.9,66.2,30.02,SSW,210,3.0,8.0,61,0.00,,---,0.00,VWS V14.01,2013-02-21 19:23:00,
2013-02-21 14:26:00,81.2,66.5,30.02,SSW,210,2.0,8.0,61,0.00,,---,0.00,VWS V14.01,2013-02-21 19:26:00,
2013-02-21 14:28:00,81.4,66.7,30.02,East,95,3.0,5.0,61,0.00,,---,0.00,VWS V14.01,2013-02-21 19:28:00,
2013-02-21 14:29:00,81.6,67.3,30.02,SSW,196,4.0,5.0,62,0.00,,---,0.00,VWS V14.01,2013-02-21 19:29:00,
2013-02-21 14:31:00,81.7,66.9,30.02,SSW,213,3.0,7.0,61,0.00,,---,0.00,VWS V14.01,2013-02-21 19:31:00,
2013-02-21 14:32:00,81.6,66.4,30.02,SSW,195,3.0,7.0,60,0.00,,---,0.00,VWS V14.01,2013-02-21 19:32:00,
2013-02-21 14:33:00,81.6,66.4,30.02,South,173,3.0,7.0,60,0.00,,---,0.00,VWS V14.01,2013-02-21 19:33:00,
2013-02-21 14:35:00,81.3,66.1,30.02,SSW,210,5.0,7.0,60,0.00,,---,0.00,VWS V14.01,2013-02-21 19:35:00,
2013-02-21 14:37:00,81.0,66.3,30.02,WSW,238,6.0,6.0,61,0.00,,---,0.00,VWS V14.01,2013-02-21 19:37:00,
2013-02-21 14:38:00,80.8,66.1,30.01,South,180,3.0,6.0,61,0.00,,---,0.00,VWS V14.01,2013-02-21 19:38:00,
2013-02-21 14:39:00,80.7,66.5,30.02,SSE,148,2.0,6.0,62,0.00,,---,0.00,VWS V14.01,2013-02-21 19:39:00,
2013-02-21 14:40:00,80.5,66.3,30.01,SSW,192,2.0,6.0,62,0.00,,---,0.00,VWS V14.01,2013-02-21 19:40:00,
2013-02-21 14:42:00,80.4,66.7,30.01,South,175,3.0,3.0,63,0.00,,---,0.00,VWS V14.01,2013-02-21 19:42:00,
2013-02-21 14:43:00,80.4,66.7,30.01,SSW,192,6.0,7.0,63,0.00,,---,0.00,VWS V14.01,2013-02-21 19:43:00,
2013-02-21 14:44:00,80.4,66.7,30.01,South,175,3.0,7.0,63,0.00,,---,0.00,VWS V14.01,2013-02-21 19:44:00,
2013-02-21 14:45:00,80.5,66.8,30.01,South,175,3.0,7.0,63,0.00,,---,0.00,VWS V14.01,2013-02-21 19:45:00,
2013-02-21 14:48:00,80.6,66.4,30.01,WSW,247,1.0,6.0,62,0.00,,---,0.00,VWS V14.01,2013-02-21 19:48:00,
2013-02-21 14:49:00,80.7,66.0,30.01,SSE,163,7.0,7.0,61,0.00,,---,0.00,VWS V14.01,2013-02-21 19:49:00,
2013-02-21 14:50:00,80.7,66.0,30.01,SSW,209,4.0,7.0,61,0.00,,---,0.00,VWS V14.01,2013-02-21 19:50:00,
2013-02-21 14:51:00,80.6,66.4,30.01,WSW,253,4.0,8.0,62,0.00,,---,0.00,VWS V14.01,2013-02-21 19:51:00,
2013-02-21 14:55:00,80.5,66.8,30.01,SW,224,9.0,9.0,63,0.00,,---,0.00,VWS V14.01,2013-02-21 19:55:00,
2013-02-21 14:56:00,80.5,66.3,30.01,South,190,2.0,4.0,62,0.00,,---,0.00,VWS V14.01,2013-02-21 19:56:00,
2013-02-21 15:01:00,80.2,66.0,30.01,South,182,4.0,8.0,62,0.00,,---,0.00,VWS V14.01,2013-02-21 20:01:00,
2013-02-21 15:02:00,80.2,66.5,30.01,SW,218,6.0,8.0,63,0.00,,---,0.00,VWS V14.01,2013-02-21 20:02:00,
2013-02-21 15:03:00,80.1,66.4,30.01,SW,217,4.0,8.0,63,0.00,,---,0.00,VWS V14.01,2013-02-21 20:03:00,
2013-02-21 15:06:00,79.8,66.6,30.01,SSW,211,2.0,10.0,64,0.00,,---,0.00,VWS V14.01,2013-02-21 20:06:00,
2013-02-21 15:07:00,79.8,67.0,30.01,SSW,207,7.0,7.0,65,0.00,,---,0.00,VWS V14.01,2013-02-21 20:07:00,
2013-02-21 15:08:00,79.8,66.1,30.01,SSW,204,3.0,9.0,63,0.00,,---,0.00,VWS V14.01,2013-02-21 20:08:00,
2013-02-21 15:11:00,79.7,66.5,30.01,SSW,194,3.0,3.0,64,0.00,,---,0.00,VWS V14.01,2013-02-21 20:11:00,
2013-02-21 15:12:00,79.7,66.5,30.01,SSW,195,3.0,4.0,64,0.00,,---,0.00,VWS V14.01,2013-02-21 20:12:00,
2013-02-21 15:13:00,79.7,66.5,30.01,SSW,198,5.0,7.0,64,0.00,,---,0.00,VWS V14.01,2013-02-21 20:13:00,
2013-02-21 15:16:00,79.8,66.6,30.01,SSE,167,4.0,7.0,64,0.00,,---,0.00,VWS V14.01,2013-02-21 20:16:00,
2013-02-21 15:17:00,79.7,66.5,30.01,SSE,156,1.0,5.0,64,0.00,,---,0.00,VWS V14.01,2013-02-21 20:17:00,
2013-02-21 15:18:00,79.8,66.6,30.01,SSE,157,2.0,5.0,64,0.00,,---,0.00,VWS V14.01,2013-02-21 20:18:00,
2013-02-21 15:19:00,79.8,66.6,30.01,SSW,196,5.0,5.0,64,0.00,,---,0.00,VWS V14.01,2013-02-21 20:19:00,
2013-02-21 15:23:00,79.9,66.2,30.01,SW,236,4.0,4.0,63,0.00,,---,0.00,VWS V14.01,2013-02-21 20:23:00,
2013-02-21 15:24:00,80.0,65.8,30.00,ESE,115,3.0,6.0,62,0.00,,---,0.00,VWS V14.01,2013-02-21 20:24:00,
2013-02-21 15:25:00,80.0,65.8,30.00,South,185,2.0,6.0,62,0.00,,---,0.00,VWS V14.01,2013-02-21 20:25:00,
2013-02-21 15:28:00,80.0,65.8,30.00,SSE,165,1.0,5.0,62,0.00,,---,0.00,VWS V14.01,2013-02-21 20:28:00,
2013-02-21 15:29:00,80.1,65.9,30.00,South,180,3.0,5.0,62,0.00,,---,0.00,VWS V14.01,2013-02-21 20:29:00,
2013-02-21 15:30:00,80.0,65.8,30.00,South,180,2.0,5.0,62,0.00,,---,0.00,VWS V14.01,2013-02-21 20:30:00,
2013-02-21 15:34:00,80.1,65.9,30.00,South,171,2.0,6.0,62,0.00,,---,0.00,VWS V14.01,2013-02-21 20:34:00,
2013-02-21 15:35:00,80.1,65.9,30.00,SE,142,1.0,6.0,62,0.00,,---,0.00,VWS V14.01,2013-02-21 20:35:00,
2013-02-21 15:36:00,80.1,65.9,30.00,South,183,1.0,6.0,62,0.00,,---,0.00,VWS V14.01,2013-02-21 20:36:00,
2013-02-21 15:39:00,80.1,66.4,30.00,SSE,159,3.0,6.0,63,0.00,,---,0.00,VWS V14.01,2013-02-21 20:39:00,
2013-02-21 15:40:00,80.1,66.4,30.00,SSE,157,2.0,6.0,63,0.00,,---,0.00,VWS V14.01,2013-02-21 20:40:00,
2013-02-21 15:42:00,80.1,66.4,30.00,SSW,197,4.0,4.0,63,0.00,,---,0.00,VWS V14.01,2013-02-21 20:42:00,
2013-02-21 15:45:00,80.0,66.3,30.00,South,173,3.0,10.0,63,0.00,,---,0.00,VWS V14.01,2013-02-21 20:45:00,
2013-02-21 15:46:00,79.9,66.2,30.00,SSW,207,4.0,10.0,63,0.00,,---,0.00,VWS V14.01,2013-02-21 20:46:00,
2013-02-21 15:49:00,79.7,66.0,30.00,SW,215,5.0,6.0,63,0.00,,---,0.00,VWS V14.01,2013-02-21 20:49:00,
2013-02-21 15:50:00,79.7,66.0,30.00,SSW,192,11.0,13.0,63,0.00,,---,0.00,VWS V14.01,2013-02-21 20:50:00,
2013-02-21 15:51:00,79.6,66.4,30.00,SW,215,5.0,13.0,64,0.00,,---,0.00,VWS V14.01,2013-02-21 20:51:00,
2013-02-21 15:55:00,79.5,66.3,30.01,SSW,194,1.0,6.0,64,0.00,,---,0.00,VWS V14.01,2013-02-21 20:55:00,
2013-02-21 15:56:00,79.4,66.2,30.01,SSE,163,3.0,6.0,64,0.00,,---,0.00,VWS V14.01,2013-02-21 20:56:00,
2013-02-21 16:00:00,79.3,66.1,30.01,SSW,205,7.0,7.0,64,0.00,,---,0.00,VWS V14.01,2013-02-21 21:00:00,
2013-02-21 16:01:00,79.2,66.0,30.01,SSE,162,2.0,7.0,64,0.00,,---,0.00,VWS V14.01,2013-02-21 21:01:00,
2013-02-21 16:04:00,79.2,66.0,30.00,SSE,163,4.0,7.0,64,0.00,,---,0.00,VWS V14.01,2013-02-21 21:04:00,
2013-02-21 16:06:00,79.2,66.0,30.00,SSE,161,2.0,7.0,64,0.00,,---,0.00,VWS V14.01,2013-02-21 21:06:00,
2013-02-21 16:07:00,79.1,65.9,30.01,South,188,1.0,5.0,64,0.00,,---,0.00,VWS V14.01,2013-02-21 21:07:00,
2013-02-21 16:10:00,79.1,65.9,30.01,SSE,164,2.0,6.0,64,0.00,,---,0.00,VWS V14.01,2013-02-21 21:10:00,
2013-02-21 16:12:00,79.0,65.8,30.00,SSW,192,2.0,3.0,64,0.00,,---,0.00,VWS V14.01,2013-02-21 21:12:00,
2013-02-21 16:13:00,79.0,66.2,30.00,South,185,1.0,3.0,65,0.00,,---,0.00,VWS V14.01,2013-02-21 21:13:00,
2013-02-21 16:15:00,79.1,66.3,30.00,ESE,118,2.0,4.0,65,0.00,,---,0.00,VWS V14.01,2013-02-21 21:15:00,
2013-02-21 16:17:00,79.2,66.0,30.00,SE,143,4.0,5.0,64,0.00,,---,0.00,VWS V14.01,2013-02-21 21:17:00,
2013-02-21 16:18:00,79.2,66.0,30.00,WSW,239,3.0,5.0,64,0.00,,---,0.00,VWS V14.01,2013-02-21 21:18:00,
2013-02-21 16:19:00,79.2,66.0,30.00,SSW,200,3.0,5.0,64,0.00,,---,0.00,VWS V14.01,2013-02-21 21:19:00,
2013-02-21 16:21:00,79.2,66.0,30.00,SSE,163,3.0,7.0,64,0.00,,---,0.00,VWS V14.01,2013-02-21 21:21:00,
2013-02-21 16:23:00,79.1,66.3,30.00,SE,139,1.0,6.0,65,0.00,,---,0.00,VWS V14.01,2013-02-21 21:23:00,
2013-02-21 16:24:00,79.1,66.3,30.00,SE,139,1.0,6.0,65,0.00,,---,0.00,VWS V14.01,2013-02-21 21:24:00,
2013-02-21 16:26:00,79.1,66.3,30.00,South,170,3.0,6.0,65,0.00,,---,0.00,VWS V14.01,2013-02-21 21:26:00,
2013-02-21 16:27:00,79.1,66.3,30.00,South,183,4.0,4.0,65,0.00,,---,0.00,VWS V14.01,2013-02-21 21:27:00,
2013-02-21 16:28:00,79.2,66.4,30.00,South,172,1.0,4.0,65,0.00,,---,0.00,VWS V14.01,2013-02-21 21:28:00,
2013-02-21 16:29:00,79.2,66.4,30.00,SSE,168,4.0,4.0,65,0.00,,---,0.00,VWS V14.01,2013-02-21 21:29:00,
2013-02-21 16:31:00,79.2,66.0,30.00,SSW,207,6.0,6.0,64,0.00,,---,0.00,VWS V14.01,2013-02-21 21:31:00,
2013-02-21 16:33:00,79.1,66.3,30.00,South,171,2.0,6.0,65,0.00,,---,0.00,VWS V14.01,2013-02-21 21:33:00,
2013-02-21 16:34:00,79.0,66.2,30.00,SSW,202,3.0,6.0,65,0.00,,---,0.00,VWS V14.01,2013-02-21 21:34:00,
2013-02-21 16:36:00,78.9,66.2,30.00,SSE,166,3.0,9.0,65,0.00,,---,0.00,VWS V14.01,2013-02-21 21:36:00,
2013-02-21 16:38:00,78.7,66.0,30.00,South,190,2.0,6.0,65,0.00,,---,0.00,VWS V14.01,2013-02-21 21:38:00,
2013-02-21 16:39:00,78.7,66.0,29.99,SSW,210,7.0,8.0,65,0.00,,---,0.00,VWS V14.01,2013-02-21 21:39:00,
2013-02-21 16:41:00,78.5,66.2,29.99,SSW,199,2.0,8.0,66,0.00,,---,0.00,VWS V14.01,2013-02-21 21:41:00,
2013-02-21 16:43:00,78.5,66.2,29.99,SSE,157,2.0,5.0,66,0.00,,---,0.00,VWS V14.01,2013-02-21 21:43:00,
2013-02-21 16:44:00,78.4,65.7,29.99,SSE,153,3.0,6.0,65,0.00,,---,0.00,VWS V14.01,2013-02-21 21:44:00,
2013-02-21 16:47:00,78.2,65.9,29.99,SSE,166,0.0,4.0,66,0.00,,---,0.00,VWS V14.01,2013-02-21 21:47:00,
2013-02-21 16:49:00,78.1,66.3,29.99,SSE,161,2.0,4.0,67,0.00,,---,0.00,VWS V14.01,2013-02-21 21:49:00,
2013-02-21 16:51:00,77.9,66.1,29.99,SSE,165,1.0,1.0,67,0.00,,---,0.00,VWS V14.01,2013-02-21 21:51:00,
2013-02-21 16:54:00,77.8,66.0,29.99,SW,215,2.0,6.0,67,0.00,,---,0.00,VWS V14.01,2013-02-21 21:54:00,
2013-02-21 16:55:00,77.8,66.0,29.99,SW,215,3.0,7.0,67,0.00,,---,0.00,VWS V14.01,2013-02-21 21:55:00,
2013-02-21 16:56:00,77.8,66.4,29.99,SSW,212,0.0,2.0,68,0.00,,---,0.00,VWS V14.01,2013-02-21 21:56:00,
2013-02-21 17:00:00,77.9,66.5,29.99,SSW,212,1.0,2.0,68,0.00,,---,0.00,VWS V14.01,2013-02-21 22:00:00,
2013-02-21 17:01:00,78.0,66.6,29.99,SSW,212,2.0,2.0,68,0.00,,---,0.00,VWS V14.01,2013-02-21 22:01:00,
2013-02-21 17:05:00,78.2,66.4,29.99,SE,146,1.0,4.0,67,0.00,,---,0.00,VWS V14.01,2013-02-21 22:05:00,
2013-02-21 17:06:00,78.1,66.7,29.99,SE,146,1.0,2.0,68,0.00,,---,0.00,VWS V14.01,2013-02-21 22:06:00,
2013-02-21 17:08:00,78.1,66.7,30.00,SE,128,0.0,3.0,68,0.00,,---,0.00,VWS V14.01,2013-02-21 22:08:00,
2013-02-21 17:10:00,78.1,66.7,29.99,South,171,1.0,4.0,68,0.00,,---,0.00,VWS V14.01,2013-02-21 22:10:00,
2013-02-21 17:13:00,77.9,66.5,29.99,South,173,2.0,3.0,68,0.00,,---,0.00,VWS V14.01,2013-02-21 22:13:00,
2013-02-21 17:14:00,77.8,66.4,29.99,South,175,1.0,6.0,68,0.00,,---,0.00,VWS V14.01,2013-02-21 22:14:00,
2013-02-21 17:18:00,77.3,66.3,29.99,South,186,2.0,7.0,69,0.00,,---,0.00,VWS V14.01,2013-02-21 22:18:00,
2013-02-21 17:19:00,77.2,66.2,29.99,South,186,1.0,7.0,69,0.00,,---,0.00,VWS V14.01,2013-02-21 22:19:00,
2013-02-21 17:21:00,77.1,66.6,29.99,SSW,192,3.0,5.0,70,0.00,,---,0.00,VWS V14.01,2013-02-21 22:21:00,
2013-02-21 17:24:00,76.8,65.9,29.99,SSE,148,2.0,5.0,69,0.00,,---,0.00,VWS V14.01,2013-02-21 22:24:00,
2013-02-21 17:25:00,76.8,65.9,29.99,SSE,150,2.0,5.0,69,0.00,,---,0.00,VWS V14.01,2013-02-21 22:25:00,
2013-02-21 17:26:00,76.7,65.8,29.99,SSE,150,0.0,5.0,69,0.00,,---,0.00,VWS V14.01,2013-02-21 22:26:00,
2013-02-21 17:29:00,76.6,65.3,29.99,South,176,5.0,7.0,68,0.00,,---,0.00,VWS V14.01,2013-02-21 22:29:00,
2013-02-21 17:31:00,76.5,65.2,29.99,SSE,161,3.0,7.0,68,0.00,,---,0.00,VWS V14.01,2013-02-21 22:31:00,
2013-02-21 17:32:00,76.4,65.5,30.00,SSE,149,2.0,3.0,69,0.00,,---,0.00,VWS V14.01,2013-02-21 22:32:00,
2013-02-21 17:35:00,76.1,65.2,30.00,SSE,155,1.0,4.0,69,0.00,,---,0.00,VWS V14.01,2013-02-21 22:35:00,
2013-02-21 17:37:00,76.0,65.1,30.00,SE,130,0.0,4.0,69,0.00,,---,0.00,VWS V14.01,2013-02-21 22:37:00,
2013-02-21 17:38:00,75.9,65.0,30.00,South,180,2.0,4.0,69,0.00,,---,0.00,VWS V14.01,2013-02-21 22:38:00,
2013-02-21 17:41:00,75.7,64.8,30.00,South,182,7.0,7.0,69,0.00,,---,0.00,VWS V14.01,2013-02-21 22:41:00,
2013-02-21 17:42:00,75.6,64.7,30.00,South,184,3.0,7.0,69,0.00,,---,0.00,VWS V14.01,2013-02-21 22:42:00,
2013-02-21 17:43:00,75.5,64.6,30.00,SSE,153,3.0,7.0,69,0.00,,---,0.00,VWS V14.01,2013-02-21 22:43:00,
2013-02-21 17:44:00,75.5,65.0,30.00,SSW,196,1.0,7.0,70,0.00,,---,0.00,VWS V14.01,2013-02-21 22:44:00,
2013-02-21 17:46:00,75.4,65.3,30.00,South,182,2.0,2.0,71,0.00,,---,0.00,VWS V14.01,2013-02-21 22:46:00,
2013-02-21 17:47:00,75.3,65.7,30.00,South,182,1.0,2.0,72,0.00,,---,0.00,VWS V14.01,2013-02-21 22:47:00,
2013-02-21 17:49:00,75.2,65.6,30.00,South,182,1.0,2.0,72,0.00,,---,0.00,VWS V14.01,2013-02-21 22:49:00,
2013-02-21 17:51:00,75.1,65.5,30.00,South,182,1.0,1.0,72,0.00,,---,0.00,VWS V14.01,2013-02-21 22:51:00,
2013-02-21 17:52:00,75.0,65.4,30.00,South,181,2.0,2.0,72,0.00,,---,0.00,VWS V14.01,2013-02-21 22:52:00,
2013-02-21 17:54:00,74.9,65.3,30.00,South,184,2.0,3.0,72,0.00,,---,0.00,VWS V14.01,2013-02-21 22:54:00,
2013-02-21 17:56:00,74.8,65.6,30.00,South,183,2.0,3.0,73,0.00,,---,0.00,VWS V14.01,2013-02-21 22:56:00,
2013-02-21 17:57:00,74.8,65.6,30.00,South,183,0.0,1.0,73,0.00,,---,0.00,VWS V14.01,2013-02-21 22:57:00,
2013-02-21 17:59:00,74.7,65.5,30.00,South,180,4.0,4.0,73,0.00,,---,0.00,VWS V14.01,2013-02-21 22:59:00,
2013-02-21 18:01:00,74.6,65.4,30.00,SSE,165,0.0,4.0,73,0.00,,---,0.00,VWS V14.01,2013-02-21 23:01:00,
2013-02-21 18:03:00,74.5,65.7,30.00,SSE,165,0.0,1.0,74,0.00,,---,0.00,VWS V14.01,2013-02-21 23:03:00,
2013-02-21 18:06:00,74.4,65.6,30.00,SSE,165,1.0,2.0,74,0.00,,---,0.00,VWS V14.01,2013-02-21 23:06:00,
2013-02-21 18:07:00,74.4,65.6,30.00,SSE,165,0.0,0.0,74,0.00,,---,0.00,VWS V14.01,2013-02-21 23:07:00,
2013-02-21 18:08:00,74.4,66.0,30.00,SSE,165,0.0,0.0,75,0.00,,---,0.00,VWS V14.01,2013-02-21 23:08:00,
2013-02-21 18:11:00,74.3,65.9,30.01,South,177,0.0,2.0,75,0.00,,---,0.00,VWS V14.01,2013-02-21 23:11:00,
2013-02-21 18:13:00,74.2,65.8,30.00,South,177,0.0,2.0,75,0.00,,---,0.00,VWS V14.01,2013-02-21 23:13:00,
2013-02-21 18:14:00,74.2,65.8,30.00,South,177,0.0,2.0,75,0.00,,---,0.00,VWS V14.01,2013-02-21 23:14:00,
2013-02-21 18:18:00,73.9,65.9,30.00,South,190,3.0,3.0,76,0.00,,---,0.00,VWS V14.01,2013-02-21 23:18:00,
2013-02-21 18:19:00,73.9,65.9,30.00,South,190,2.0,3.0,76,0.00,,---,0.00,VWS V14.01,2013-02-21 23:19:00,
2013-02-21 18:21:00,73.7,65.7,30.00,South,189,2.0,2.0,76,0.00,,---,0.00,VWS V14.01,2013-02-21 23:21:00,
2013-02-21 18:24:00,73.6,65.6,30.00,South,187,0.0,4.0,76,0.00,,---,0.00,VWS V14.01,2013-02-21 23:24:00,
2013-02-21 18:26:00,73.4,65.8,30.00,South,187,0.0,4.0,77,0.00,,---,0.00,VWS V14.01,2013-02-21 23:26:00,
2013-02-21 18:29:00,73.2,65.6,30.01,South,187,0.0,2.0,77,0.00,,---,0.00,VWS V14.01,2013-02-21 23:29:00,
2013-02-21 18:30:00,73.2,65.6,30.01,South,187,0.0,2.0,77,0.00,,---,0.00,VWS V14.01,2013-02-21 23:30:00,
2013-02-21 18:31:00,73.1,65.5,30.01,South,187,0.0,1.0,77,0.00,,---,0.00,VWS V14.01,2013-02-21 23:31:00,
2013-02-21 18:32:00,73.1,65.5,30.01,South,187,0.0,1.0,77,0.00,,---,0.00,VWS V14.01,2013-02-21 23:32:00,
2013-02-21 18:35:00,72.9,65.7,30.01,SSW,203,0.0,3.0,78,0.00,,---,0.00,VWS V14.01,2013-02-21 23:35:00,
2013-02-21 18:36:00,72.8,65.6,30.01,SSW,203,0.0,1.0,78,0.00,,---,0.00,VWS V14.01,2013-02-21 23:36:00,
2013-02-21 18:37:00,72.8,65.6,30.01,SSW,203,0.0,1.0,78,0.00,,---,0.00,VWS V14.01,2013-02-21 23:37:00,
2013-02-21 18:40:00,72.6,65.7,30.01,South,179,0.0,2.0,79,0.00,,---,0.00,VWS V14.01,2013-02-21 23:40:00,
2013-02-21 18:41:00,72.6,65.3,30.01,South,179,1.0,2.0,78,0.00,,---,0.00,VWS V14.01,2013-02-21 23:41:00,
2013-02-21 18:42:00,72.5,65.6,30.01,South,179,0.0,2.0,79,0.00,,---,0.00,VWS V14.01,2013-02-21 23:42:00,
2013-02-21 18:44:00,72.4,65.5,30.01,South,179,1.0,2.0,79,0.00,,---,0.00,VWS V14.01,2013-02-21 23:44:00,
2013-02-21 18:46:00,72.3,65.4,30.01,South,179,0.0,2.0,79,0.00,,---,0.00,VWS V14.01,2013-02-21 23:46:00,
2013-02-21 18:47:00,72.2,65.3,30.01,South,179,0.0,1.0,79,0.00,,---,0.00,VWS V14.01,2013-02-21 23:47:00,
2013-02-21 18:49:00,72.1,65.2,30.01,South,179,0.0,1.0,79,0.00,,---,0.00,VWS V14.01,2013-02-21 23:49:00,
2013-02-21 18:51:00,72.0,65.1,30.01,South,179,0.0,0.0,79,0.00,,---,0.00,VWS V14.01,2013-02-21 23:51:00,
2013-02-21 18:53:00,72.0,65.5,30.01,South,179,0.0,0.0,80,0.00,,---,0.00,VWS V14.01,2013-02-21 23:53:00,
2013-02-21 18:54:00,71.9,65.4,30.01,South,179,0.0,0.0,80,0.00,,---,0.00,VWS V14.01,2013-02-21 23:54:00,
2013-02-21 18:58:00,71.8,65.3,30.01,South,179,0.0,0.0,80,0.00,,---,0.00,VWS V14.01,2013-02-21 23:58:00,
2013-02-21 18:59:00,71.7,65.2,30.01,South,179,0.0,0.0,80,0.00,,---,0.00,VWS V14.01,2013-02-21 23:59:00,
2013-02-21 19:00:00,71.7,65.2,30.01,South,179,0.0,1.0,80,0.00,,---,0.00,VWS V14.01,2013-02-22 00:00:00,
2013-02-21 19:02:00,71.5,65.0,30.01,South,179,0.0,0.0,80,0.00,,---,0.00,VWS V14.01,2013-02-22 00:02:00,
2013-02-21 19:03:00,71.5,65.4,30.01,South,179,0.0,0.0,81,0.00,,---,0.00,VWS V14.01,2013-02-22 00:03:00,
2013-02-21 19:04:00,71.5,65.4,30.01,South,179,0.0,0.0,81,0.00,,---,0.00,VWS V14.01,2013-02-22 00:04:00,
2013-02-21 19:06:00,71.3,65.2,30.01,South,179,0.0,0.0,81,0.00,,---,0.00,VWS V14.01,2013-02-22 00:06:00,
2013-02-21 19:09:00,71.2,65.1,30.01,South,179,0.0,0.0,81,0.00,,---,0.00,VWS V14.01,2013-02-22 00:09:00,
2013-02-21 19:14:00,71.0,64.9,30.01,South,179,0.0,1.0,81,0.00,,---,0.00,VWS V14.01,2013-02-22 00:14:00,
2013-02-21 19:15:00,71.0,65.2,30.01,South,179,0.0,1.0,82,0.00,,---,0.00,VWS V14.01,2013-02-22 00:15:00,
2013-02-21 19:16:00,70.9,65.1,30.01,South,179,0.0,1.0,82,0.00,,---,0.00,VWS V14.01,2013-02-22 00:16:00,
2013-02-21 19:19:00,70.7,64.9,30.01,South,179,0.0,1.0,82,0.00,,---,0.00,VWS V14.01,2013-02-22 00:19:00,
2013-02-21 19:20:00,70.7,64.9,30.01,South,179,0.0,1.0,82,0.00,,---,0.00,VWS V14.01,2013-02-22 00:20:00,
2013-02-21 19:22:00,70.6,64.8,30.01,South,179,0.0,0.0,82,0.00,,---,0.00,VWS V14.01,2013-02-22 00:22:00,
2013-02-21 19:25:00,70.4,65.0,30.01,South,179,0.0,0.0,83,0.00,,---,0.00,VWS V14.01,2013-02-22 00:25:00,
2013-02-21 19:26:00,70.4,65.0,30.01,South,179,0.0,0.0,83,0.00,,---,0.00,VWS V14.01,2013-02-22 00:26:00,
2013-02-21 19:30:00,70.2,64.8,30.01,South,179,0.0,0.0,83,0.00,,---,0.00,VWS V14.01,2013-02-22 00:30:00,
2013-02-21 19:31:00,70.2,64.8,30.01,South,179,0.0,0.0,83,0.00,,---,0.00,VWS V14.01,2013-02-22 00:31:00,
2013-02-21 19:32:00,70.1,64.7,30.01,South,179,0.0,0.0,83,0.00,,---,0.00,VWS V14.01,2013-02-22 00:32:00,
2013-02-21 19:35:00,70.0,64.9,30.01,South,179,0.0,0.0,84,0.00,,---,0.00,VWS V14.01,2013-02-22 00:35:00,
2013-02-21 19:37:00,69.9,64.8,30.01,South,179,0.0,0.0,84,0.00,,---,0.00,VWS V14.01,2013-02-22 00:37:00,
2013-02-21 19:38:00,69.9,64.8,30.01,South,179,0.0,0.0,84,0.00,,---,0.00,VWS V14.01,2013-02-22 00:38:00,
2013-02-21 19:40:00,69.8,64.8,30.01,South,179,0.0,0.0,84,0.00,,---,0.00,VWS V14.01,2013-02-22 00:40:00,
2013-02-21 19:43:00,69.7,64.7,30.01,South,179,0.0,0.0,84,0.00,,---,0.00,VWS V14.01,2013-02-22 00:43:00,
2013-02-21 19:45:00,69.6,64.9,30.01,South,179,0.0,0.0,85,0.00,,---,0.00,VWS V14.01,2013-02-22 00:45:00,
2013-02-21 19:49:00,69.5,64.8,30.01,South,179,0.0,0.0,85,0.00,,---,0.00,VWS V14.01,2013-02-22 00:49:00,
2013-02-21 19:50:00,69.4,64.7,30.01,South,179,0.0,0.0,85,0.00,,---,0.00,VWS V14.01,2013-02-22 00:50:00,
2013-02-21 19:54:00,69.3,64.6,30.01,South,179,0.0,0.0,85,0.00,,---,0.00,VWS V14.01,2013-02-22 00:54:00,
2013-02-21 19:55:00,69.3,64.6,30.01,South,179,0.0,0.0,85,0.00,,---,0.00,VWS V14.01,2013-02-22 00:55:00,
2013-02-21 19:56:00,69.2,64.5,30.01,South,179,0.0,0.0,85,0.00,,---,0.00,VWS V14.01,2013-02-22 00:56:00,
2013-02-21 20:00:00,69.1,64.4,30.01,South,179,0.0,0.0,85,0.00,,---,0.00,VWS V14.01,2013-02-22 01:00:00,
2013-02-21 20:02:00,69.0,64.6,30.01,South,179,0.0,1.0,86,0.00,,---,0.00,VWS V14.01,2013-02-22 01:02:00,
2013-02-21 20:03:00,69.0,64.6,30.01,South,179,0.0,1.0,86,0.00,,---,0.00,VWS V14.01,2013-02-22 01:03:00,
2013-02-21 20:05:00,69.0,64.6,30.01,South,179,0.0,1.0,86,0.00,,---,0.00,VWS V14.01,2013-02-22 01:05:00,
2013-02-21 20:07:00,68.9,64.6,30.01,South,179,0.0,0.0,86,0.00,,---,0.00,VWS V14.01,2013-02-22 01:07:00,
2013-02-21 20:08:00,68.8,64.4,30.01,South,179,0.0,0.0,86,0.00,,---,0.00,VWS V14.01,2013-02-22 01:08:00,
2013-02-21 20:10:00,68.8,64.4,30.01,South,179,0.0,0.0,86,0.00,,---,0.00,VWS V14.01,2013-02-22 01:10:00,
2013-02-21 20:11:00,68.8,64.4,30.01,South,179,0.0,0.0,86,0.00,,---,0.00,VWS V14.01,2013-02-22 01:11:00,
2013-02-21 20:12:00,68.7,64.3,30.01,South,179,0.0,0.0,86,0.00,,---,0.00,VWS V14.01,2013-02-22 01:12:00,
2013-02-21 20:13:00,68.6,64.2,30.01,South,179,0.0,0.0,86,0.00,,---,0.00,VWS V14.01,2013-02-22 01:13:00,
2013-02-21 20:15:00,68.6,64.2,30.02,South,179,0.0,0.0,86,0.00,,---,0.00,VWS V14.01,2013-02-22 01:15:00,
2013-02-21 20:16:00,68.6,64.2,30.02,South,179,0.0,0.0,86,0.00,,---,0.00,VWS V14.01,2013-02-22 01:16:00,
2013-02-21 20:18:00,68.5,64.5,30.02,South,179,0.0,0.0,87,0.00,,---,0.00,VWS V14.01,2013-02-22 01:18:00,
2013-02-21 20:19:00,68.5,64.5,30.02,South,179,0.0,0.0,87,0.00,,---,0.00,VWS V14.01,2013-02-22 01:19:00,
2013-02-21 20:21:00,68.4,64.4,30.02,South,179,0.0,0.0,87,0.00,,---,0.00,VWS V14.01,2013-02-22 01:21:00,
2013-02-21 20:23:00,68.3,64.3,30.02,South,179,0.0,0.0,87,0.00,,---,0.00,VWS V14.01,2013-02-22 01:23:00,
2013-02-21 20:25:00,68.2,64.2,30.02,South,179,0.0,0.0,87,0.00,,---,0.00,VWS V14.01,2013-02-22 01:25:00,
2013-02-21 20:26:00,68.1,64.1,30.02,South,179,0.0,0.0,87,0.00,,---,0.00,VWS V14.01,2013-02-22 01:26:00,
2013-02-21 20:28:00,68.1,64.1,30.02,South,179,0.0,0.0,87,0.00,,---,0.00,VWS V14.01,2013-02-22 01:28:00,
2013-02-21 20:30:00,68.0,64.3,30.02,South,179,0.0,0.0,88,0.00,,---,0.00,VWS V14.01,2013-02-22 01:30:00,
2013-02-21 20:33:00,67.9,64.2,30.02,South,179,0.0,0.0,88,0.00,,---,0.00,VWS V14.01,2013-02-22 01:33:00,
2013-02-21 20:34:00,67.8,64.1,30.02,South,179,0.0,0.0,88,0.00,,---,0.00,VWS V14.01,2013-02-22 01:34:00,
2013-02-21 20:36:00,67.7,64.0,30.02,South,179,0.0,0.0,88,0.00,,---,0.00,VWS V14.01,2013-02-22 01:36:00,
2013-02-21 20:39:00,67.6,63.9,30.02,South,179,0.0,0.0,88,0.00,,---,0.00,VWS V14.01,2013-02-22 01:39:00,
2013-02-21 20:41:00,67.5,64.2,30.02,South,179,0.0,0.0,89,0.00,,---,0.00,VWS V14.01,2013-02-22 01:41:00,
2013-02-21 20:42:00,67.4,64.1,30.02,South,179,0.0,0.0,89,0.00,,---,0.00,VWS V14.01,2013-02-22 01:42:00,
2013-02-21 20:44:00,67.4,64.1,30.02,South,179,0.0,0.0,89,0.00,,---,0.00,VWS V14.01,2013-02-22 01:44:00,
2013-02-21 20:45:00,67.3,64.0,30.02,South,179,0.0,0.0,89,0.00,,---,0.00,VWS V14.01,2013-02-22 01:45:00,
2013-02-21 20:46:00,67.2,63.8,30.02,South,179,0.0,0.0,89,0.00,,---,0.00,VWS V14.01,2013-02-22 01:46:00,
2013-02-21 20:48:00,67.1,63.8,30.02,South,179,0.0,0.0,89,0.00,,---,0.00,VWS V14.01,2013-02-22 01:48:00,
2013-02-21 20:49:00,67.1,63.8,30.02,South,179,0.0,0.0,89,0.00,,---,0.00,VWS V14.01,2013-02-22 01:49:00,
2013-02-21 20:50:00,67.0,63.7,30.02,South,179,0.0,0.0,89,0.00,,---,0.00,VWS V14.01,2013-02-22 01:50:00,
2013-02-21 20:51:00,67.0,63.7,30.02,South,179,0.0,0.0,89,0.00,,---,0.00,VWS V14.01,2013-02-22 01:51:00,
2013-02-21 20:54:00,66.8,63.8,30.02,South,179,0.0,0.0,90,0.00,,---,0.00,VWS V14.01,2013-02-22 01:54:00,
2013-02-21 20:55:00,66.8,63.8,30.02,South,179,0.0,0.0,90,0.00,,---,0.00,VWS V14.01,2013-02-22 01:55:00,
2013-02-21 20:56:00,66.8,63.8,30.02,South,179,0.0,0.0,90,0.00,,---,0.00,VWS V14.01,2013-02-22 01:56:00,
2013-02-21 21:00:00,66.6,63.6,30.02,South,179,0.0,0.0,90,0.00,,---,0.00,VWS V14.01,2013-02-22 02:00:00,
2013-02-21 21:01:00,66.6,63.6,30.02,South,179,0.0,0.0,90,0.00,,---,0.00,VWS V14.01,2013-02-22 02:01:00,
2013-02-21 21:02:00,66.6,63.6,30.02,South,179,0.0,0.0,90,0.00,,---,0.00,VWS V14.01,2013-02-22 02:02:00,
2013-02-21 21:03:00,66.5,63.5,30.02,South,179,0.0,0.0,90,0.00,,---,0.00,VWS V14.01,2013-02-22 02:03:00,
2013-02-21 21:05:00,66.4,63.4,30.02,South,179,0.0,0.0,90,0.00,,---,0.00,VWS V14.01,2013-02-22 02:05:00,
2013-02-21 21:06:00,66.4,63.4,30.02,South,179,0.0,0.0,90,0.00,,---,0.00,VWS V14.01,2013-02-22 02:06:00,
2013-02-21 21:07:00,66.4,63.4,30.02,South,179,0.0,0.0,90,0.00,,---,0.00,VWS V14.01,2013-02-22 02:07:00,
2013-02-21 21:09:00,66.4,63.4,30.02,South,179,0.0,0.0,90,0.00,,---,0.00,VWS V14.01,2013-02-22 02:09:00,
2013-02-21 21:12:00,66.3,63.6,30.02,South,179,0.0,0.0,91,0.00,,---,0.00,VWS V14.01,2013-02-22 02:12:00,
2013-02-21 21:13:00,66.2,63.5,30.02,South,179,0.0,0.0,91,0.00,,---,0.00,VWS V14.01,2013-02-22 02:13:00,
2013-02-21 21:14:00,66.2,63.5,30.02,South,179,0.0,0.0,91,0.00,,---,0.00,VWS V14.01,2013-02-22 02:14:00,
2013-02-21 21:17:00,66.1,63.4,30.02,South,179,0.0,0.0,91,0.00,,---,0.00,VWS V14.01,2013-02-22 02:17:00,
2013-02-21 21:19:00,66.0,63.3,30.02,South,179,0.0,0.0,91,0.00,,---,0.00,VWS V14.01,2013-02-22 02:19:00,
2013-02-21 21:20:00,65.9,63.2,30.02,South,179,0.0,0.0,91,0.00,,---,0.00,VWS V14.01,2013-02-22 02:20:00,
2013-02-21 21:23:00,65.9,63.2,30.03,South,179,0.0,0.0,91,0.00,,---,0.00,VWS V14.01,2013-02-22 02:23:00,
2013-02-21 21:25:00,65.8,63.1,30.03,South,179,0.0,0.0,91,0.00,,---,0.00,VWS V14.01,2013-02-22 02:25:00,
2013-02-21 21:26:00,65.8,63.1,30.03,South,179,0.0,0.0,91,0.00,,---,0.00,VWS V14.01,2013-02-22 02:26:00,
2013-02-21 21:28:00,65.8,63.4,30.03,South,179,0.0,0.0,92,0.00,,---,0.00,VWS V14.01,2013-02-22 02:28:00,
2013-02-21 21:30:00,65.7,63.3,30.03,South,179,0.0,0.0,92,0.00,,---,0.00,VWS V14.01,2013-02-22 02:30:00,
2013-02-21 21:31:00,65.7,63.3,30.03,South,179,0.0,0.0,92,0.00,,---,0.00,VWS V14.01,2013-02-22 02:31:00,
2013-02-21 21:33:00,65.6,63.2,30.03,South,179,0.0,0.0,92,0.00,,---,0.00,VWS V14.01,2013-02-22 02:33:00,
2013-02-21 21:36:00,65.6,63.2,30.03,South,179,0.0,0.0,92,0.00,,---,0.00,VWS V14.01,2013-02-22 02:36:00,
2013-02-21 21:41:00,65.4,63.0,30.03,South,179,0.0,0.0,92,0.00,,---,0.00,VWS V14.01,2013-02-22 02:41:00,
2013-02-21 21:42:00,65.4,63.0,30.03,South,179,0.0,0.0,92,0.00,,---,0.00,VWS V14.01,2013-02-22 02:42:00,
2013-02-21 21:47:00,65.3,62.9,30.03,South,179,0.0,0.0,92,0.00,,---,0.00,VWS V14.01,2013-02-22 02:47:00,
2013-02-21 21:48:00,65.2,62.8,30.03,South,179,0.0,0.0,92,0.00,,---,0.00,VWS V14.01,2013-02-22 02:48:00,
2013-02-21 21:52:00,65.1,62.7,30.03,South,179,0.0,0.0,92,0.00,,---,0.00,VWS V14.01,2013-02-22 02:52:00,
2013-02-21 21:53:00,65.1,62.7,30.03,South,179,0.0,0.0,92,0.00,,---,0.00,VWS V14.01,2013-02-22 02:53:00,
2013-02-21 21:54:00,65.1,62.7,30.03,South,179,0.0,0.0,92,0.00,,---,0.00,VWS V14.01,2013-02-22 02:54:00,
2013-02-21 21:58:00,64.9,62.5,30.03,South,179,0.0,0.0,92,0.00,,---,0.00,VWS V14.01,2013-02-22 02:58:00,
2013-02-21 22:00:00,64.9,62.5,30.03,South,179,0.0,0.0,92,0.00,,---,0.00,VWS V14.01,2013-02-22 03:00:00,
2013-02-21 22:01:00,64.8,62.4,30.03,South,179,0.0,0.0,92,0.00,,---,0.00,VWS V14.01,2013-02-22 03:01:00,
2013-02-21 22:03:00,64.8,62.4,30.03,South,179,0.0,0.0,92,0.00,,---,0.00,VWS V14.01,2013-02-22 03:03:00,
2013-02-21 22:05:00,64.7,62.6,30.03,South,179,0.0,0.0,93,0.00,,---,0.00,VWS V14.01,2013-02-22 03:05:00,
2013-02-21 22:06:00,64.7,62.6,30.03,South,179,0.0,0.0,93,0.00,,---,0.00,VWS V14.01,2013-02-22 03:06:00,
2013-02-21 22:08:00,64.6,62.5,30.03,South,179,0.0,0.0,93,0.00,,---,0.00,VWS V14.01,2013-02-22 03:08:00,
2013-02-21 22:10:00,64.6,62.5,30.03,South,179,0.0,0.0,93,0.00,,---,0.00,VWS V14.01,2013-02-22 03:10:00,
2013-02-21 22:11:00,64.6,62.5,30.03,South,179,0.0,0.0,93,0.00,,---,0.00,VWS V14.01,2013-02-22 03:11:00,
2013-02-21 22:13:00,64.5,62.4,30.03,South,179,0.0,0.0,93,0.00,,---,0.00,VWS V14.01,2013-02-22 03:13:00,
2013-02-21 22:17:00,64.4,62.3,30.03,South,179,0.0,0.0,93,0.00,,---,0.00,VWS V14.01,2013-02-22 03:17:00,
2013-02-21 22:20:00,64.3,62.2,30.03,South,179,0.0,0.0,93,0.00,,---,0.00,VWS V14.01,2013-02-22 03:20:00,
2013-02-21 22:21:00,64.3,62.2,30.03,South,179,0.0,0.0,93,0.00,,---,0.00,VWS V14.01,2013-02-22 03:21:00,
2013-02-21 22:22:00,64.3,62.2,30.03,South,179,0.0,0.0,93,0.00,,---,0.00,VWS V14.01,2013-02-22 03:22:00,
2013-02-21 22:23:00,64.3,62.2,30.03,South,179,0.0,0.0,93,0.00,,---,0.00,VWS V14.01,2013-02-22 03:23:00,
2013-02-21 22:25:00,64.2,62.1,30.03,South,179,0.0,0.0,93,0.00,,---,0.00,VWS V14.01,2013-02-22 03:25:00,
2013-02-21 22:27:00,64.2,62.4,30.03,South,179,0.0,0.0,94,0.00,,---,0.00,VWS V14.01,2013-02-22 03:27:00,
2013-02-21 22:29:00,64.2,62.4,30.03,South,179,0.0,0.0,94,0.00,,---,0.00,VWS V14.01,2013-02-22 03:29:00,
2013-02-21 22:31:00,64.1,62.3,30.03,South,179,0.0,0.0,94,0.00,,---,0.00,VWS V14.01,2013-02-22 03:31:00,
2013-02-21 22:32:00,64.1,62.3,30.03,South,179,0.0,0.0,94,0.00,,---,0.00,VWS V14.01,2013-02-22 03:32:00,
2013-02-21 22:34:00,64.1,62.3,30.03,South,179,0.0,0.0,94,0.00,,---,0.00,VWS V14.01,2013-02-22 03:34:00,
2013-02-21 22:36:00,64.1,62.3,30.03,South,179,0.0,0.0,94,0.00,,---,0.00,VWS V14.01,2013-02-22 03:36:00,
2013-02-21 22:37:00,64.1,62.3,30.03,South,179,0.0,0.0,94,0.00,,---,0.00,VWS V14.01,2013-02-22 03:37:00,
2013-02-21 22:41:00,64.1,62.3,30.03,South,179,0.0,0.0,94,0.00,,---,0.00,VWS V14.01,2013-02-22 03:41:00,
2013-02-21 22:43:00,64.0,62.2,30.03,South,179,0.0,0.0,94,0.00,,---,0.00,VWS V14.01,2013-02-22 03:43:00,
2013-02-21 22:46:00,64.0,62.2,30.03,South,179,0.0,0.0,94,0.00,,---,0.00,VWS V14.01,2013-02-22 03:46:00,
2013-02-21 22:47:00,64.0,62.2,30.03,South,179,0.0,0.0,94,0.00,,---,0.00,VWS V14.01,2013-02-22 03:47:00,
2013-02-21 22:48:00,64.0,62.2,30.03,South,179,0.0,0.0,94,0.00,,---,0.00,VWS V14.01,2013-02-22 03:48:00,
2013-02-21 22:52:00,63.9,62.1,30.03,South,179,0.0,0.0,94,0.00,,---,0.00,VWS V14.01,2013-02-22 03:52:00,
2013-02-21 22:54:00,63.9,62.1,30.03,South,179,0.0,0.0,94,0.00,,---,0.00,VWS V14.01,2013-02-22 03:54:00,
2013-02-21 22:56:00,63.9,62.1,30.03,South,179,0.0,0.0,94,0.00,,---,0.00,VWS V14.01,2013-02-22 03:56:00,
2013-02-21 22:57:00,63.9,62.1,30.03,South,179,0.0,0.0,94,0.00,,---,0.00,VWS V14.01,2013-02-22 03:57:00,
2013-02-21 22:58:00,63.9,62.1,30.03,South,179,0.0,0.0,94,0.00,,---,0.00,VWS V14.01,2013-02-22 03:58:00,
2013-02-21 22:59:00,63.8,62.0,30.03,South,179,0.0,0.0,94,0.00,,---,0.00,VWS V14.01,2013-02-22 03:59:00,
2013-02-21 23:01:00,63.8,62.0,30.03,South,179,0.0,0.0,94,0.00,,---,0.00,VWS V14.01,2013-02-22 04:01:00,
2013-02-21 23:04:00,63.9,62.4,30.03,South,179,0.0,0.0,95,0.00,,---,0.00,VWS V14.01,2013-02-22 04:04:00,
2013-02-21 23:05:00,63.9,62.4,30.03,South,179,0.0,0.0,95,0.00,,---,0.00,VWS V14.01,2013-02-22 04:05:00,
2013-02-21 23:06:00,63.9,62.4,30.03,South,179,0.0,0.0,95,0.00,,---,0.00,VWS V14.01,2013-02-22 04:06:00,
2013-02-21 23:10:00,63.9,62.4,30.03,South,179,0.0,0.0,95,0.00,,---,0.00,VWS V14.01,2013-02-22 04:10:00,
2013-02-21 23:11:00,63.9,62.4,30.03,South,179,0.0,0.0,95,0.00,,---,0.00,VWS V14.01,2013-02-22 04:11:00,
2013-02-21 23:12:00,63.9,62.4,30.03,South,179,0.0,0.0,95,0.00,,---,0.00,VWS V14.01,2013-02-22 04:12:00,
2013-02-21 23:16:00,63.9,62.4,30.04,South,179,0.0,0.0,95,0.00,,---,0.00,VWS V14.01,2013-02-22 04:16:00,
2013-02-21 23:17:00,63.9,62.4,30.04,South,179,0.0,0.0,95,0.00,,---,0.00,VWS V14.01,2013-02-22 04:17:00,
2013-02-21 23:18:00,63.9,62.4,30.04,South,179,0.0,0.0,95,0.00,,---,0.00,VWS V14.01,2013-02-22 04:18:00,
2013-02-21 23:22:00,63.9,62.4,30.03,South,179,0.0,0.0,95,0.00,,---,0.00,VWS V14.01,2013-02-22 04:22:00,
2013-02-21 23:24:00,63.9,62.4,30.03,South,179,0.0,0.0,95,0.00,,---,0.00,VWS V14.01,2013-02-22 04:24:00,
2013-02-21 23:26:00,63.8,62.3,30.03,South,179,0.0,0.0,95,0.00,,---,0.00,VWS V14.01,2013-02-22 04:26:00,
2013-02-21 23:27:00,63.8,62.3,30.03,South,179,0.0,0.0,95,0.00,,---,0.00,VWS V14.01,2013-02-22 04:27:00,
2013-02-21 23:29:00,63.8,62.3,30.03,South,179,0.0,0.0,95,0.00,,---,0.00,VWS V14.01,2013-02-22 04:29:00,
2013-02-21 23:31:00,63.8,62.3,30.03,South,179,0.0,0.0,95,0.00,,---,0.00,VWS V14.01,2013-02-22 04:31:00,
2013-02-21 23:32:00,63.8,62.3,30.03,South,179,0.0,0.0,95,0.00,,---,0.00,VWS V14.01,2013-02-22 04:32:00,
2013-02-21 23:33:00,63.8,62.3,30.03,South,179,0.0,0.0,95,0.00,,---,0.00,VWS V14.01,2013-02-22 04:33:00,
2013-02-21 23:34:00,63.8,62.3,30.03,South,179,0.0,0.0,95,0.00,,---,0.00,VWS V14.01,2013-02-22 04:34:00,
2013-02-21 23:36:00,63.8,62.3,30.03,South,179,0.0,0.0,95,0.00,,---,0.00,VWS V14.01,2013-02-22 04:36:00,
2013-02-21 23:37:00,63.8,62.3,30.03,South,179,0.0,0.0,95,0.00,,---,0.00,VWS V14.01,2013-02-22 04:37:00,
2013-02-21 23:39:00,63.8,62.3,30.03,South,179,0.0,0.0,95,0.00,,---,0.00,VWS V14.01,2013-02-22 04:39:00,
2013-02-21 23:40:00,63.7,62.2,30.03,South,179,0.0,0.0,95,0.00,,---,0.00,VWS V14.01,2013-02-22 04:40:00,
2013-02-21 23:42:00,63.7,62.2,30.03,South,179,0.0,0.0,95,0.00,,---,0.00,VWS V14.01,2013-02-22 04:42:00,
2013-02-21 23:43:00,63.7,62.2,30.03,South,179,0.0,0.0,95,0.00,,---,0.00,VWS V14.01,2013-02-22 04:43:00,
2013-02-21 23:44:00,63.7,62.2,30.03,South,179,0.0,0.0,95,0.00,,---,0.00,VWS V14.01,2013-02-22 04:44:00,
2013-02-21 23:46:00,63.7,62.2,30.03,South,179,0.0,0.0,95,0.00,,---,0.00,VWS V14.01,2013-02-22 04:46:00,
2013-02-21 23:47:00,63.7,62.2,30.03,South,179,0.0,0.0,95,0.00,,---,0.00,VWS V14.01,2013-02-22 04:47:00,
2013-02-21 23:49:00,63.7,62.2,30.03,South,179,0.0,0.0,95,0.00,,---,0.00,VWS V14.01,2013-02-22 04:49:00,
2013-02-21 23:51:00,63.6,62.2,30.03,South,179,0.0,0.0,95,0.00,,---,0.00,VWS V14.01,2013-02-22 04:51:00,
2013-02-21 23:52:00,63.6,62.2,30.04,South,179,0.0,0.0,95,0.00,,---,0.00,VWS V14.01,2013-02-22 04:52:00,
2013-02-21 23:54:00,63.6,62.2,30.04,South,179,0.0,0.0,95,0.00,,---,0.00,VWS V14.01,2013-02-22 04:54:00,
2013-02-21 23:56:00,63.6,62.2,30.03,South,179,0.0,0.0,95,0.00,,---,0.00,VWS V14.01,2013-02-22 04:56:00,
2013-02-21 23:57:00,63.5,62.0,30.03,South,179,0.0,0.0,95,0.00,,---,0.00,VWS V14.01,2013-02-22 04:57:00,